Observation data for Hackberry on 11/19/2019      Previous  Date       Current Mesonet Observations  Soil Data  Daily Summary Page  Observations in Plain Language
KHA3 190600Z 24005KT 10/02 A2994 RMK A01 T01000021  RH  058%=      5-min Rain = 0
KHA3 190601Z 24005KT 10/02 A2994 RMK A01 T00990021  RH  058%=      5-min Rain = 0
KHA3 190602Z 24005KT 10/02 A2994 RMK A01 T00990021  RH  058%=      5-min Rain = 0
KHA3 190603Z 24005KT 10/02 A2994 RMK A01 T00990021  RH  058%=      5-min Rain = 0
KHA3 190604Z 24005KT 10/02 A2994 RMK A01 T00980020  RH  058%=      5-min Rain = 0
KHA3 190605Z 25005KT 10/02 A2994 RMK A01 T00970020  RH  059%=      5-min Rain = 0
KHA3 190606Z 24006KT 10/02 A2994 RMK A01 T00960020  RH  059%=      5-min Rain = 0
KHA3 190607Z 24006KT 10/02 A2994 RMK A01 T00960021  RH  059%=      5-min Rain = 0
KHA3 190608Z 24006KT 10/02 A2994 RMK A01 T00950021  RH  060%=      5-min Rain = 0
KHA3 190609Z 24006KT 10/02 A2994 RMK A01 T00950021  RH  060%=      5-min Rain = 0
KHA3 190610Z 25006KT 10/02 A2994 RMK A01 T00950021  RH  060%=      5-min Rain = 0
KHA3 190611Z 24006KT 10/02 A2994 RMK A01 T00960021  RH  059%=      5-min Rain = 0
KHA3 190612Z 24006KT 10/02 A2994 RMK A01 T00970021  RH  059%=      5-min Rain = 0
KHA3 190613Z 24006KT 10/02 A2994 RMK A01 T00980021  RH  059%=      5-min Rain = 0
KHA3 190614Z 24006KT 10/02 A2994 RMK A01 T00980021  RH  059%=      5-min Rain = 0
KHA3 190615Z 24006KT 10/02 A2994 RMK A01 T00980021  RH  059%=      5-min Rain = 0
KHA3 190616Z 24007KT 10/02 A2994 RMK A01 T00980022  RH  059%=      5-min Rain = 0
KHA3 190617Z 24006KT 10/02 A2994 RMK A01 T00960021  RH  060%=      5-min Rain = 0
KHA3 190618Z 24007KT 09/02 A2994 RMK A01 T00930021  RH  061%=      5-min Rain = 0
KHA3 190619Z 24006KT 09/02 A2994 RMK A01 T00910021  RH  062%=      5-min Rain = 0
KHA3 190620Z 24006KT 09/02 A2994 RMK A01 T00890021  RH  062%=      5-min Rain = 0
KHA3 190621Z 23006KT 09/02 A2994 RMK A01 T00880022  RH  063%=      5-min Rain = 0
KHA3 190622Z 23006KT 09/02 A2994 RMK A01 T00860021  RH  064%=      5-min Rain = 0
KHA3 190623Z 23006KT 09/02 A2994 RMK A01 T00850022  RH  064%=      5-min Rain = 0
KHA3 190624Z 23006KT 09/02 A2994 RMK A01 T00850022  RH  065%=      5-min Rain = 0
KHA3 190625Z 23006KT 08/02 A2994 RMK A01 T00840022  RH  065%=      5-min Rain = 0
KHA3 190626Z 24006KT 09/02 A2994 RMK A01 T00850022  RH  065%=      5-min Rain = 0
KHA3 190627Z 24007KT 09/02 A2994 RMK A01 T00860023  RH  064%=      5-min Rain = 0
KHA3 190628Z 24007KT 09/02 A2994 RMK A01 T00870023  RH  064%=      5-min Rain = 0
KHA3 190629Z 24007KT 09/02 A2994 RMK A01 T00880022  RH  064%=      5-min Rain = 0
KHA3 190630Z 24007KT 09/02 A2994 RMK A01 T00880023  RH  063%=      5-min Rain = 0
KHA3 190631Z 24007KT 09/02 A2994 RMK A01 T00890023  RH  063%=      5-min Rain = 0
KHA3 190632Z 23006KT 09/02 A2994 RMK A01 T00890023  RH  063%=      5-min Rain = 0
KHA3 190633Z 23006KT 09/02 A2994 RMK A01 T00880023  RH  064%=      5-min Rain = 0
KHA3 190634Z 23006KT 09/02 A2994 RMK A01 T00870022  RH  064%=      5-min Rain = 0
KHA3 190635Z 23006KT 09/02 A2994 RMK A01 T00870023  RH  064%=      5-min Rain = 0
KHA3 190636Z 22006KT 09/02 A2994 RMK A01 T00860023  RH  064%=      5-min Rain = 0
KHA3 190637Z 22006KT 09/02 A2994 RMK A01 T00860023  RH  064%=      5-min Rain = 0
KHA3 190638Z 22006KT 09/02 A2994 RMK A01 T00860022  RH  064%=      5-min Rain = 0
KHA3 190639Z 23006KT 09/02 A2994 RMK A01 T00850022  RH  065%=      5-min Rain = 0
KHA3 190640Z 23005KT 09/02 A2994 RMK A01 T00850022  RH  065%=      5-min Rain = 0
KHA3 190641Z 23006KT 08/02 A2994 RMK A01 T00840022  RH  065%=      5-min Rain = 0
KHA3 190642Z 23006KT 08/02 A2994 RMK A01 T00840022  RH  065%=      5-min Rain = 0
KHA3 190643Z 23006KT 08/02 A2994 RMK A01 T00830022  RH  065%=      5-min Rain = 0
KHA3 190644Z 23006KT 08/02 A2994 RMK A01 T00830022  RH  065%=      5-min Rain = 0
KHA3 190645Z 23006KT 08/02 A2994 RMK A01 T00820021  RH  065%=      5-min Rain = 0
KHA3 190646Z 24006KT 08/02 A2994 RMK A01 T00820021  RH  066%=      5-min Rain = 0
KHA3 190647Z 24006KT 08/02 A2994 RMK A01 T00820021  RH  066%=      5-min Rain = 0
KHA3 190648Z 24006KT 08/02 A2994 RMK A01 T00820021  RH  065%=      5-min Rain = 0
KHA3 190649Z 24006KT 08/02 A2993 RMK A01 T00830021  RH  065%=      5-min Rain = 0
KHA3 190650Z 24006KT 08/02 A2993 RMK A01 T00840021  RH  065%=      5-min Rain = 0
KHA3 190651Z 24006KT 08/02 A2993 RMK A01 T00840022  RH  065%=      5-min Rain = 0
KHA3 190652Z 24006KT 08/02 A2993 RMK A01 T00830022  RH  065%=      5-min Rain = 0
KHA3 190653Z 24006KT 08/02 A2994 RMK A01 T00830022  RH  065%=      5-min Rain = 0
KHA3 190654Z 24006KT 08/02 A2994 RMK A01 T00830021  RH  065%=      5-min Rain = 0
KHA3 190655Z 24005KT 08/02 A2994 RMK A01 T00840022  RH  065%=      5-min Rain = 0
KHA3 190656Z 24006KT 09/02 A2994 RMK A01 T00850022  RH  064%=      5-min Rain = 0
KHA3 190657Z 24006KT 09/02 A2994 RMK A01 T00870022  RH  064%=      5-min Rain = 0
KHA3 190658Z 25005KT 09/02 A2994 RMK A01 T00880022  RH  063%=      5-min Rain = 0
KHA3 190659Z 25005KT 09/02 A2994 RMK A01 T00900022  RH  062%=      5-min Rain = 0
KHA3 190700Z 25005KT 09/02 A2994 RMK A01 T00910022  RH  062%=      5-min Rain = 0
KHA3 190701Z 25005KT 09/02 A2994 RMK A01 T00930022  RH  061%=      5-min Rain = 0
KHA3 190702Z 25006KT 09/02 A2994 RMK A01 T00940022  RH  060%=      5-min Rain = 0
KHA3 190703Z 25006KT 10/02 A2994 RMK A01 T00960021  RH  060%=      5-min Rain = 0
KHA3 190704Z 25006KT 10/02 A2994 RMK A01 T00970021  RH  059%=      5-min Rain = 0
KHA3 190705Z 25006KT 10/02 A2994 RMK A01 T00980021  RH  059%=      5-min Rain = 0
KHA3 190706Z 25006KT 10/02 A2994 RMK A01 T00980021  RH  059%=      5-min Rain = 0
KHA3 190707Z 25006KT 10/02 A2994 RMK A01 T00960021  RH  059%=      5-min Rain = 0
KHA3 190708Z 25006KT 10/02 A2994 RMK A01 T00950021  RH  060%=      5-min Rain = 0
KHA3 190709Z 25006KT 10/02 A2994 RMK A01 T00950021  RH  060%=      5-min Rain = 0
KHA3 190710Z 25006KT 10/02 A2994 RMK A01 T00950021  RH  060%=      5-min Rain = 0
KHA3 190711Z 24006KT 10/02 A2994 RMK A01 T00960021  RH  060%=      5-min Rain = 0
KHA3 190712Z 24006KT 10/02 A2994 RMK A01 T00960021  RH  060%=      5-min Rain = 0
KHA3 190713Z 24006KT 10/02 A2994 RMK A01 T00950021  RH  060%=      5-min Rain = 0
KHA3 190714Z 24006KT 09/02 A2994 RMK A01 T00930020  RH  060%=      5-min Rain = 0
KHA3 190715Z 24006KT 09/02 A2994 RMK A01 T00920020  RH  061%=      5-min Rain = 0
KHA3 190716Z 24006KT 09/02 A2994 RMK A01 T00910020  RH  061%=      5-min Rain = 0
KHA3 190717Z 24005KT 09/02 A2994 RMK A01 T00910020  RH  061%=      5-min Rain = 0
KHA3 190718Z 24005KT 09/02 A2994 RMK A01 T00910020  RH  061%=      5-min Rain = 0
KHA3 190719Z 25006KT 09/02 A2994 RMK A01 T00910020  RH  061%=      5-min Rain = 0
KHA3 190720Z 25006KT 09/02 A2994 RMK A01 T00920020  RH  061%=      5-min Rain = 0
KHA3 190721Z 24005KT 09/02 A2994 RMK A01 T00920020  RH  061%=      5-min Rain = 0
KHA3 190722Z 24005KT 09/02 A2994 RMK A01 T00920020  RH  061%=      5-min Rain = 0
KHA3 190723Z 24005KT 09/02 A2994 RMK A01 T00920020  RH  060%=      5-min Rain = 0
KHA3 190724Z 25005KT 09/02 A2994 RMK A01 T00930020  RH  060%=      5-min Rain = 0
KHA3 190725Z 25005KT 09/02 A2994 RMK A01 T00920020  RH  060%=      5-min Rain = 0
KHA3 190726Z 25005KT 09/02 A2994 RMK A01 T00920020  RH  061%=      5-min Rain = 0
KHA3 190727Z 25005KT 09/02 A2994 RMK A01 T00920020  RH  061%=      5-min Rain = 0
KHA3 190728Z 25005KT 09/02 A2994 RMK A01 T00920020  RH  061%=      5-min Rain = 0
KHA3 190729Z 25005KT 09/02 A2994 RMK A01 T00920020  RH  061%=      5-min Rain = 0
KHA3 190730Z 25006KT 09/02 A2994 RMK A01 T00920020  RH  061%=      5-min Rain = 0
KHA3 190731Z 25006KT 09/02 A2994 RMK A01 T00920020  RH  061%=      5-min Rain = 0
KHA3 190732Z 25006KT 09/02 A2994 RMK A01 T00920020  RH  061%=      5-min Rain = 0
KHA3 190733Z 25005KT 09/02 A2994 RMK A01 T00920020  RH  061%=      5-min Rain = 0
KHA3 190734Z 25005KT 09/02 A2994 RMK A01 T00920020  RH  061%=      5-min Rain = 0
KHA3 190735Z 25005KT 09/02 A2994 RMK A01 T00920020  RH  061%=      5-min Rain = 0
KHA3 190736Z 25005KT 09/02 A2994 RMK A01 T00920020  RH  061%=      5-min Rain = 0
KHA3 190737Z 25005KT 09/02 A2994 RMK A01 T00900019  RH  061%=      5-min Rain = 0
KHA3 190738Z 25005KT 09/02 A2994 RMK A01 T00900019  RH  061%=      5-min Rain = 0
KHA3 190739Z 25005KT 09/02 A2994 RMK A01 T00890019  RH  062%=      5-min Rain = 0
KHA3 190740Z 26005KT 09/02 A2994 RMK A01 T00890020  RH  062%=      5-min Rain = 0
KHA3 190741Z 26005KT 09/02 A2994 RMK A01 T00880020  RH  062%=      5-min Rain = 0
KHA3 190742Z 26005KT 09/02 A2994 RMK A01 T00880020  RH  062%=      5-min Rain = 0
KHA3 190743Z 26005KT 09/02 A2994 RMK A01 T00880019  RH  062%=      5-min Rain = 0
KHA3 190744Z 26005KT 09/02 A2994 RMK A01 T00870019  RH  062%=      5-min Rain = 0
KHA3 190745Z 26005KT 09/02 A2994 RMK A01 T00860019  RH  063%=      5-min Rain = 0
KHA3 190746Z 26006KT 09/02 A2994 RMK A01 T00860019  RH  063%=      5-min Rain = 0
KHA3 190747Z 26006KT 09/02 A2994 RMK A01 T00850019  RH  063%=      5-min Rain = 0
KHA3 190748Z 26005KT 08/02 A2994 RMK A01 T00840019  RH  064%=      5-min Rain = 0
KHA3 190749Z 26005KT 09/02 A2994 RMK A01 T00850020  RH  064%=      5-min Rain = 0
KHA3 190750Z 26005KT 08/02 A2994 RMK A01 T00840020  RH  064%=      5-min Rain = 0
KHA3 190751Z 26005KT 08/02 A2994 RMK A01 T00840020  RH  064%=      5-min Rain = 0
KHA3 190752Z 26005KT 08/02 A2994 RMK A01 T00840019  RH  064%=      5-min Rain = 0
KHA3 190753Z 26005KT 08/02 A2994 RMK A01 T00830019  RH  064%=      5-min Rain = 0
KHA3 190754Z 26004KT 08/02 A2994 RMK A01 T00830019  RH  064%=      5-min Rain = 0
KHA3 190755Z 26004KT 08/02 A2994 RMK A01 T00830019  RH  064%=      5-min Rain = 0
KHA3 190756Z 26005KT 08/02 A2994 RMK A01 T00840019  RH  064%=      5-min Rain = 0
KHA3 190757Z 25005KT 08/02 A2994 RMK A01 T00840019  RH  064%=      5-min Rain = 0
KHA3 190758Z 25005KT 08/02 A2994 RMK A01 T00840019  RH  064%=      5-min Rain = 0
KHA3 190759Z 25005KT 08/02 A2994 RMK A01 T00840019  RH  064%=      5-min Rain = 0
KHA3 190800Z 25005KT 08/02 A2995 RMK A01 T00830019  RH  064%=      5-min Rain = 0
KHA3 190801Z 25006KT 08/02 A2995 RMK A01 T00830019  RH  064%=      5-min Rain = 0
KHA3 190802Z 25005KT 08/02 A2995 RMK A01 T00840019  RH  064%=      5-min Rain = 0
KHA3 190803Z 25006KT 08/02 A2995 RMK A01 T00840020  RH  064%=      5-min Rain = 0
KHA3 190804Z 26006KT 08/02 A2995 RMK A01 T00830019  RH  064%=      5-min Rain = 0
KHA3 190805Z 26006KT 08/02 A2995 RMK A01 T00830019  RH  064%=      5-min Rain = 0
KHA3 190806Z 26005KT 08/02 A2994 RMK A01 T00820019  RH  064%=      5-min Rain = 0
KHA3 190807Z 26005KT 08/02 A2994 RMK A01 T00820019  RH  064%=      5-min Rain = 0
KHA3 190808Z 26005KT 08/02 A2994 RMK A01 T00820019  RH  064%=      5-min Rain = 0
KHA3 190809Z 26005KT 08/02 A2994 RMK A01 T00820019  RH  065%=      5-min Rain = 0
KHA3 190810Z 25005KT 08/02 A2994 RMK A01 T00820019  RH  065%=      5-min Rain = 0
KHA3 190811Z 25005KT 08/02 A2994 RMK A01 T00820019  RH  064%=      5-min Rain = 0
KHA3 190812Z 25005KT 08/02 A2994 RMK A01 T00830019  RH  064%=      5-min Rain = 0
KHA3 190813Z 25005KT 08/02 A2994 RMK A01 T00830019  RH  064%=      5-min Rain = 0
KHA3 190814Z 25005KT 08/02 A2994 RMK A01 T00820018  RH  064%=      5-min Rain = 0
KHA3 190815Z 25004KT 08/02 A2994 RMK A01 T00810018  RH  065%=      5-min Rain = 0
KHA3 190816Z 25004KT 08/02 A2994 RMK A01 T00790018  RH  065%=      5-min Rain = 0
KHA3 190817Z 26004KT 08/02 A2994 RMK A01 T00780018  RH  066%=      5-min Rain = 0
KHA3 190818Z 26004KT 08/02 A2994 RMK A01 T00780018  RH  066%=      5-min Rain = 0
KHA3 190819Z 26004KT 08/02 A2994 RMK A01 T00790018  RH  065%=      5-min Rain = 0
KHA3 190820Z 27004KT 08/02 A2994 RMK A01 T00790018  RH  065%=      5-min Rain = 0
KHA3 190821Z 27004KT 08/02 A2994 RMK A01 T00790018  RH  065%=      5-min Rain = 0
KHA3 190822Z 27004KT 08/02 A2994 RMK A01 T00790019  RH  066%=      5-min Rain = 0
KHA3 190823Z 27003KT 08/02 A2994 RMK A01 T00790019  RH  066%=      5-min Rain = 0
KHA3 190824Z 27003KT 08/02 A2994 RMK A01 T00790019  RH  065%=      5-min Rain = 0
KHA3 190825Z 27003KT 08/02 A2994 RMK A01 T00800019  RH  065%=      5-min Rain = 0
KHA3 190826Z 27003KT 08/02 A2994 RMK A01 T00800019  RH  065%=      5-min Rain = 0
KHA3 190827Z 27003KT 08/02 A2994 RMK A01 T00810019  RH  065%=      5-min Rain = 0
KHA3 190828Z 27003KT 08/02 A2994 RMK A01 T00820019  RH  065%=      5-min Rain = 0
KHA3 190829Z 27004KT 08/02 A2994 RMK A01 T00820019  RH  065%=      5-min Rain = 0
KHA3 190830Z 27004KT 08/02 A2994 RMK A01 T00820019  RH  065%=      5-min Rain = 0
KHA3 190831Z 27003KT 08/02 A2994 RMK A01 T00820019  RH  065%=      5-min Rain = 0
KHA3 190832Z 27003KT 08/02 A2994 RMK A01 T00810019  RH  065%=      5-min Rain = 0
KHA3 190833Z 28003KT 08/02 A2994 RMK A01 T00800019  RH  065%=      5-min Rain = 0
KHA3 190834Z 28003KT 08/02 A2994 RMK A01 T00790018  RH  065%=      5-min Rain = 0
KHA3 190835Z 28003KT 08/02 A2994 RMK A01 T00790018  RH  065%=      5-min Rain = 0
KHA3 190836Z 28003KT 08/02 A2994 RMK A01 T00800018  RH  065%=      5-min Rain = 0
KHA3 190837Z 28003KT 08/02 A2994 RMK A01 T00800018  RH  065%=      5-min Rain = 0
KHA3 190838Z 28004KT 08/02 A2994 RMK A01 T00800018  RH  065%=      5-min Rain = 0
KHA3 190839Z 28004KT 08/02 A2994 RMK A01 T00800018  RH  065%=      5-min Rain = 0
KHA3 190840Z 28004KT 08/02 A2994 RMK A01 T00810018  RH  065%=      5-min Rain = 0
KHA3 190841Z 28004KT 08/02 A2994 RMK A01 T00820018  RH  064%=      5-min Rain = 0
KHA3 190842Z 28004KT 08/02 A2994 RMK A01 T00830019  RH  064%=      5-min Rain = 0
KHA3 190843Z 28004KT 08/02 A2994 RMK A01 T00830019  RH  064%=      5-min Rain = 0
KHA3 190844Z 28004KT 08/02 A2994 RMK A01 T00830019  RH  064%=      5-min Rain = 0
KHA3 190845Z 28004KT 08/02 A2994 RMK A01 T00830019  RH  064%=      5-min Rain = 0
KHA3 190846Z 28004KT 08/02 A2994 RMK A01 T00830018  RH  064%=      5-min Rain = 0
KHA3 190847Z 28004KT 08/02 A2994 RMK A01 T00830018  RH  064%=      5-min Rain = 0
KHA3 190848Z 28003KT 08/02 A2994 RMK A01 T00830018  RH  064%=      5-min Rain = 0
KHA3 190849Z 27003KT 08/02 A2994 RMK A01 T00830018  RH  064%=      5-min Rain = 0
KHA3 190850Z 27003KT 08/02 A2994 RMK A01 T00830018  RH  064%=      5-min Rain = 0
KHA3 190851Z 26003KT 08/02 A2993 RMK A01 T00820018  RH  064%=      5-min Rain = 0
KHA3 190852Z 26004KT 08/02 A2994 RMK A01 T00810018  RH  064%=      5-min Rain = 0
KHA3 190853Z 26003KT 08/02 A2994 RMK A01 T00790018  RH  065%=      5-min Rain = 0
KHA3 190854Z 26003KT 08/02 A2994 RMK A01 T00770017  RH  066%=      5-min Rain = 0
KHA3 190855Z 25004KT 08/02 A2994 RMK A01 T00750017  RH  066%=      5-min Rain = 0
KHA3 190856Z 26004KT 07/02 A2994 RMK A01 T00740017  RH  067%=      5-min Rain = 0
KHA3 190857Z 26004KT 07/02 A2994 RMK A01 T00710017  RH  068%=      5-min Rain = 0
KHA3 190858Z 26004KT 07/02 A2994 RMK A01 T00700017  RH  069%=      5-min Rain = 0
KHA3 190859Z 26004KT 07/02 A2994 RMK A01 T00700017  RH  069%=      5-min Rain = 0
KHA3 190900Z 26004KT 07/02 A2994 RMK A01 T00700016  RH  069%=      5-min Rain = 0
KHA3 190901Z 26004KT 07/02 A2994 RMK A01 T00710017  RH  068%=      5-min Rain = 0
KHA3 190902Z 26004KT 07/02 A2994 RMK A01 T00710016  RH  068%=      5-min Rain = 0
KHA3 190903Z 26004KT 07/02 A2994 RMK A01 T00710016  RH  068%=      5-min Rain = 0
KHA3 190904Z 26005KT 07/02 A2994 RMK A01 T00710016  RH  068%=      5-min Rain = 0
KHA3 190905Z 26005KT 07/02 A2994 RMK A01 T00720017  RH  068%=      5-min Rain = 0
KHA3 190906Z 26005KT 07/02 A2994 RMK A01 T00740018  RH  067%=      5-min Rain = 0
KHA3 190907Z 26005KT 08/02 A2994 RMK A01 T00760018  RH  067%=      5-min Rain = 0
KHA3 190908Z 25005KT 08/02 A2994 RMK A01 T00770017  RH  066%=      5-min Rain = 0
KHA3 190909Z 25005KT 08/02 A2994 RMK A01 T00770018  RH  066%=      5-min Rain = 0
KHA3 190910Z 25005KT 08/02 A2994 RMK A01 T00770017  RH  066%=      5-min Rain = 0
KHA3 190911Z 25005KT 07/02 A2994 RMK A01 T00740017  RH  067%=      5-min Rain = 0
KHA3 190912Z 25005KT 07/02 A2994 RMK A01 T00710016  RH  068%=      5-min Rain = 0
KHA3 190913Z 25005KT 07/02 A2994 RMK A01 T00670016  RH  070%=      5-min Rain = 0
KHA3 190914Z 25005KT 07/02 A2994 RMK A01 T00650016  RH  071%=      5-min Rain = 0
KHA3 190915Z 25005KT 06/02 A2994 RMK A01 T00640017  RH  072%=      5-min Rain = 0
KHA3 190916Z 25005KT 06/02 A2994 RMK A01 T00640017  RH  072%=      5-min Rain = 0
KHA3 190917Z 25006KT 07/02 A2994 RMK A01 T00650017  RH  071%=      5-min Rain = 0
KHA3 190918Z 24006KT 07/02 A2994 RMK A01 T00670018  RH  071%=      5-min Rain = 0
KHA3 190919Z 25006KT 07/02 A2994 RMK A01 T00670017  RH  070%=      5-min Rain = 0
KHA3 190920Z 25006KT 07/02 A2994 RMK A01 T00680017  RH  070%=      5-min Rain = 0
KHA3 190921Z 25006KT 07/02 A2994 RMK A01 T00680018  RH  070%=      5-min Rain = 0
KHA3 190922Z 26006KT 07/02 A2994 RMK A01 T00670018  RH  071%=      5-min Rain = 0
KHA3 190923Z 26007KT 07/02 A2994 RMK A01 T00680019  RH  071%=      5-min Rain = 0
KHA3 190924Z 26007KT 07/02 A2994 RMK A01 T00700020  RH  070%=      5-min Rain = 0
KHA3 190925Z 26007KT 07/02 A2994 RMK A01 T00730020  RH  069%=      5-min Rain = 0
KHA3 190926Z 26007KT 07/02 A2994 RMK A01 T00740020  RH  068%=      5-min Rain = 0
KHA3 190927Z 26007KT 08/02 A2994 RMK A01 T00760019  RH  068%=      5-min Rain = 0
KHA3 190928Z 27007KT 08/02 A2994 RMK A01 T00760019  RH  067%=      5-min Rain = 0
KHA3 190929Z 27007KT 08/02 A2994 RMK A01 T00760019  RH  067%=      5-min Rain = 0
KHA3 190930Z 27006KT 08/02 A2994 RMK A01 T00760019  RH  067%=      5-min Rain = 0
KHA3 190931Z 26006KT 08/02 A2994 RMK A01 T00760020  RH  067%=      5-min Rain = 0
KHA3 190932Z 26006KT 08/02 A2994 RMK A01 T00760019  RH  067%=      5-min Rain = 0
KHA3 190933Z 26006KT 08/02 A2994 RMK A01 T00770020  RH  067%=      5-min Rain = 0
KHA3 190934Z 27006KT 08/02 A2994 RMK A01 T00770020  RH  067%=      5-min Rain = 0
KHA3 190935Z 26006KT 08/02 A2994 RMK A01 T00780020  RH  066%=      5-min Rain = 0
KHA3 190936Z 26006KT 08/02 A2994 RMK A01 T00790019  RH  066%=      5-min Rain = 0
KHA3 190937Z 26006KT 08/02 A2994 RMK A01 T00780019  RH  066%=      5-min Rain = 0
KHA3 190938Z 26006KT 08/02 A2994 RMK A01 T00780019  RH  066%=      5-min Rain = 0
KHA3 190939Z 26006KT 08/02 A2994 RMK A01 T00790019  RH  066%=      5-min Rain = 0
KHA3 190940Z 26006KT 08/02 A2994 RMK A01 T00790019  RH  066%=      5-min Rain = 0
KHA3 190941Z 26006KT 08/02 A2994 RMK A01 T00800019  RH  066%=      5-min Rain = 0
KHA3 190942Z 26006KT 08/02 A2994 RMK A01 T00800019  RH  065%=      5-min Rain = 0
KHA3 190943Z 26006KT 08/02 A2994 RMK A01 T00810020  RH  065%=      5-min Rain = 0
KHA3 190944Z 26006KT 08/02 A2994 RMK A01 T00820020  RH  065%=      5-min Rain = 0
KHA3 190945Z 25006KT 08/02 A2994 RMK A01 T00830020  RH  065%=      5-min Rain = 0
KHA3 190946Z 25006KT 08/02 A2994 RMK A01 T00830020  RH  064%=      5-min Rain = 0
KHA3 190947Z 25006KT 09/02 A2994 RMK A01 T00850020  RH  064%=      5-min Rain = 0
KHA3 190948Z 25006KT 09/02 A2994 RMK A01 T00850020  RH  064%=      5-min Rain = 0
KHA3 190949Z 26006KT 09/02 A2994 RMK A01 T00850020  RH  064%=      5-min Rain = 0
KHA3 190950Z 26006KT 09/02 A2994 RMK A01 T00850020  RH  064%=      5-min Rain = 0
KHA3 190951Z 26006KT 09/02 A2994 RMK A01 T00850020  RH  064%=      5-min Rain = 0
KHA3 190952Z 26006KT 09/02 A2994 RMK A01 T00850020  RH  064%=      5-min Rain = 0
KHA3 190953Z 27006KT 09/02 A2994 RMK A01 T00850020  RH  064%=      5-min Rain = 0
KHA3 190954Z 27006KT 09/02 A2994 RMK A01 T00850020  RH  064%=      5-min Rain = 0
KHA3 190955Z 27006KT 09/02 A2994 RMK A01 T00850019  RH  064%=      5-min Rain = 0
KHA3 190956Z 27007KT 09/02 A2994 RMK A01 T00850020  RH  064%=      5-min Rain = 0
KHA3 190957Z 27006KT 08/02 A2994 RMK A01 T00840020  RH  064%=      5-min Rain = 0
KHA3 190958Z 27006KT 08/02 A2994 RMK A01 T00840020  RH  064%=      5-min Rain = 0
KHA3 190959Z 27007KT 08/02 A2994 RMK A01 T00840020  RH  064%=      5-min Rain = 0
KHA3 191000Z 27007KT 08/02 A2994 RMK A01 T00840020  RH  064%=      5-min Rain = 0
KHA3 191001Z 27007KT 08/02 A2994 RMK A01 T00840020  RH  064%=      5-min Rain = 0
KHA3 191002Z 27007KT 08/02 A2994 RMK A01 T00840020  RH  064%=      5-min Rain = 0
KHA3 191003Z 27007KT 08/02 A2994 RMK A01 T00830020  RH  064%=      5-min Rain = 0
KHA3 191004Z 27006KT 08/02 A2994 RMK A01 T00830020  RH  064%=      5-min Rain = 0
KHA3 191005Z 26006KT 08/02 A2994 RMK A01 T00830020  RH  064%=      5-min Rain = 0
KHA3 191006Z 26006KT 08/02 A2994 RMK A01 T00840020  RH  064%=      5-min Rain = 0
KHA3 191007Z 26007KT 08/02 A2994 RMK A01 T00840020  RH  064%=      5-min Rain = 0
KHA3 191008Z 26007KT 09/02 A2994 RMK A01 T00850020  RH  064%=      5-min Rain = 0
KHA3 191009Z 26006KT 09/02 A2994 RMK A01 T00860020  RH  063%=      5-min Rain = 0
KHA3 191010Z 27007KT 09/02 A2994 RMK A01 T00860020  RH  063%=      5-min Rain = 0
KHA3 191011Z 26006KT 09/02 A2994 RMK A01 T00870021  RH  063%=      5-min Rain = 0
KHA3 191012Z 27006KT 09/02 A2994 RMK A01 T00870020  RH  063%=      5-min Rain = 0
KHA3 191013Z 27006KT 09/02 A2994 RMK A01 T00850020  RH  063%=      5-min Rain = 0
KHA3 191014Z 27006KT 08/02 A2994 RMK A01 T00840019  RH  064%=      5-min Rain = 0
KHA3 191015Z 27006KT 08/02 A2994 RMK A01 T00840019  RH  064%=      5-min Rain = 0
KHA3 191016Z 26006KT 08/02 A2994 RMK A01 T00840020  RH  064%=      5-min Rain = 0
KHA3 191017Z 26006KT 08/02 A2994 RMK A01 T00830020  RH  064%=      5-min Rain = 0
KHA3 191018Z 26006KT 08/02 A2995 RMK A01 T00820020  RH  065%=      5-min Rain = 0
KHA3 191019Z 26006KT 08/02 A2995 RMK A01 T00830020  RH  065%=      5-min Rain = 0
KHA3 191020Z 26006KT 08/02 A2995 RMK A01 T00830021  RH  065%=      5-min Rain = 0
KHA3 191021Z 26006KT 08/02 A2995 RMK A01 T00830021  RH  065%=      5-min Rain = 0
KHA3 191022Z 27006KT 08/02 A2995 RMK A01 T00820020  RH  065%=      5-min Rain = 0
KHA3 191023Z 26006KT 08/02 A2995 RMK A01 T00820020  RH  065%=      5-min Rain = 0
KHA3 191024Z 27006KT 08/02 A2995 RMK A01 T00810020  RH  066%=      5-min Rain = 0
KHA3 191025Z 27006KT 08/02 A2995 RMK A01 T00800021  RH  066%=      5-min Rain = 0
KHA3 191026Z 27006KT 08/02 A2995 RMK A01 T00800020  RH  066%=      5-min Rain = 0
KHA3 191027Z 27006KT 08/02 A2995 RMK A01 T00800020  RH  066%=      5-min Rain = 0
KHA3 191028Z 27006KT 08/02 A2995 RMK A01 T00800020  RH  066%=      5-min Rain = 0
KHA3 191029Z 27006KT 08/02 A2995 RMK A01 T00800020  RH  066%=      5-min Rain = 0
KHA3 191030Z 26006KT 08/02 A2995 RMK A01 T00790020  RH  066%=      5-min Rain = 0
KHA3 191031Z 26007KT 08/02 A2995 RMK A01 T00800021  RH  066%=      5-min Rain = 0
KHA3 191032Z 26007KT 08/02 A2995 RMK A01 T00790020  RH  067%=      5-min Rain = 0
KHA3 191033Z 26006KT 08/02 A2995 RMK A01 T00790021  RH  067%=      5-min Rain = 0
KHA3 191034Z 26006KT 08/02 A2995 RMK A01 T00780020  RH  067%=      5-min Rain = 0
KHA3 191035Z 27006KT 08/02 A2995 RMK A01 T00770021  RH  067%=      5-min Rain = 0
KHA3 191036Z 27006KT 08/02 A2995 RMK A01 T00760020  RH  068%=      5-min Rain = 0
KHA3 191037Z 27006KT 08/02 A2995 RMK A01 T00760021  RH  068%=      5-min Rain = 0
KHA3 191038Z 26005KT 08/02 A2995 RMK A01 T00760021  RH  068%=      5-min Rain = 0
KHA3 191039Z 27005KT 08/02 A2995 RMK A01 T00760020  RH  068%=      5-min Rain = 0
KHA3 191040Z 26005KT 08/02 A2995 RMK A01 T00760020  RH  068%=      5-min Rain = 0
KHA3 191041Z 26006KT 08/02 A2995 RMK A01 T00760020  RH  068%=      5-min Rain = 0
KHA3 191042Z 26006KT 08/02 A2995 RMK A01 T00750020  RH  068%=      5-min Rain = 0
KHA3 191043Z 26005KT 08/02 A2995 RMK A01 T00750020  RH  068%=      5-min Rain = 0
KHA3 191044Z 26006KT 08/02 A2995 RMK A01 T00750020  RH  068%=      5-min Rain = 0
KHA3 191045Z 26006KT 08/02 A2995 RMK A01 T00750020  RH  068%=      5-min Rain = 0
KHA3 191046Z 26005KT 07/02 A2995 RMK A01 T00740019  RH  068%=      5-min Rain = 0
KHA3 191047Z 26005KT 07/02 A2995 RMK A01 T00740019  RH  068%=      5-min Rain = 0
KHA3 191048Z 26005KT 08/02 A2995 RMK A01 T00750020  RH  068%=      5-min Rain = 0
KHA3 191049Z 26005KT 08/02 A2995 RMK A01 T00750020  RH  068%=      5-min Rain = 0
KHA3 191050Z 26006KT 08/02 A2995 RMK A01 T00750020  RH  068%=      5-min Rain = 0
KHA3 191051Z 26006KT 08/02 A2995 RMK A01 T00750020  RH  068%=      5-min Rain = 0
KHA3 191052Z 26006KT 07/02 A2995 RMK A01 T00740020  RH  068%=      5-min Rain = 0
KHA3 191053Z 26006KT 07/02 A2996 RMK A01 T00740020  RH  069%=      5-min Rain = 0
KHA3 191054Z 26006KT 07/02 A2996 RMK A01 T00740020  RH  068%=      5-min Rain = 0
KHA3 191055Z 25006KT 08/02 A2996 RMK A01 T00750020  RH  068%=      5-min Rain = 0
KHA3 191056Z 26006KT 08/02 A2996 RMK A01 T00760020  RH  068%=      5-min Rain = 0
KHA3 191057Z 26006KT 08/02 A2996 RMK A01 T00770020  RH  067%=      5-min Rain = 0
KHA3 191058Z 25005KT 08/02 A2996 RMK A01 T00770020  RH  067%=      5-min Rain = 0
KHA3 191059Z 26005KT 08/02 A2995 RMK A01 T00770020  RH  067%=      5-min Rain = 0
KHA3 191100Z 26005KT 08/02 A2995 RMK A01 T00770020  RH  067%=      5-min Rain = 0
KHA3 191101Z 25005KT 08/02 A2995 RMK A01 T00780019  RH  067%=      5-min Rain = 0
KHA3 191102Z 25005KT 08/02 A2995 RMK A01 T00780019  RH  066%=      5-min Rain = 0
KHA3 191103Z 25005KT 08/02 A2995 RMK A01 T00790019  RH  066%=      5-min Rain = 0
KHA3 191104Z 25005KT 08/02 A2995 RMK A01 T00790020  RH  066%=      5-min Rain = 0
KHA3 191105Z 25005KT 08/02 A2995 RMK A01 T00790020  RH  066%=      5-min Rain = 0
KHA3 191106Z 25005KT 08/02 A2995 RMK A01 T00790020  RH  066%=      5-min Rain = 0
KHA3 191107Z 25004KT 08/02 A2995 RMK A01 T00790020  RH  066%=      5-min Rain = 0
KHA3 191108Z 26004KT 08/02 A2995 RMK A01 T00790020  RH  066%=      5-min Rain = 0
KHA3 191109Z 26004KT 08/02 A2995 RMK A01 T00800020  RH  066%=      5-min Rain = 0
KHA3 191110Z 26004KT 08/02 A2995 RMK A01 T00800020  RH  066%=      5-min Rain = 0
KHA3 191111Z 26004KT 08/02 A2995 RMK A01 T00800019  RH  066%=      5-min Rain = 0
KHA3 191112Z 25004KT 08/02 A2995 RMK A01 T00780019  RH  066%=      5-min Rain = 0
KHA3 191113Z 26004KT 08/02 A2995 RMK A01 T00760018  RH  067%=      5-min Rain = 0
KHA3 191114Z 25004KT 07/02 A2995 RMK A01 T00740018  RH  067%=      5-min Rain = 0
KHA3 191115Z 25004KT 07/02 A2995 RMK A01 T00720018  RH  068%=      5-min Rain = 0
KHA3 191116Z 25004KT 07/02 A2995 RMK A01 T00700017  RH  069%=      5-min Rain = 0
KHA3 191117Z 26004KT 07/02 A2995 RMK A01 T00690017  RH  070%=      5-min Rain = 0
KHA3 191118Z 26004KT 07/02 A2995 RMK A01 T00680018  RH  070%=      5-min Rain = 0
KHA3 191119Z 26004KT 07/02 A2995 RMK A01 T00680018  RH  070%=      5-min Rain = 0
KHA3 191120Z 27003KT 07/02 A2995 RMK A01 T00680018  RH  070%=      5-min Rain = 0
KHA3 191121Z 27003KT 07/02 A2995 RMK A01 T00690018  RH  070%=      5-min Rain = 0
KHA3 191122Z 28003KT 07/02 A2995 RMK A01 T00690018  RH  070%=      5-min Rain = 0
KHA3 191123Z 27003KT 07/02 A2995 RMK A01 T00700018  RH  069%=      5-min Rain = 0
KHA3 191124Z 27003KT 07/02 A2995 RMK A01 T00710018  RH  069%=      5-min Rain = 0
KHA3 191125Z 27003KT 07/02 A2995 RMK A01 T00730019  RH  068%=      5-min Rain = 0
KHA3 191126Z 27003KT 07/02 A2995 RMK A01 T00740018  RH  068%=      5-min Rain = 0
KHA3 191127Z 27004KT 08/02 A2995 RMK A01 T00760019  RH  067%=      5-min Rain = 0
KHA3 191128Z 26003KT 08/02 A2995 RMK A01 T00770018  RH  066%=      5-min Rain = 0
KHA3 191129Z 26004KT 08/02 A2995 RMK A01 T00770018  RH  066%=      5-min Rain = 0
KHA3 191130Z 26004KT 08/02 A2995 RMK A01 T00770018  RH  066%=      5-min Rain = 0
KHA3 191131Z 26004KT 08/02 A2995 RMK A01 T00760018  RH  067%=      5-min Rain = 0
KHA3 191132Z 26004KT 07/02 A2995 RMK A01 T00740017  RH  067%=      5-min Rain = 0
KHA3 191133Z 26004KT 07/02 A2995 RMK A01 T00730017  RH  068%=      5-min Rain = 0
KHA3 191134Z 26004KT 07/02 A2995 RMK A01 T00730017  RH  068%=      5-min Rain = 0
KHA3 191135Z 26004KT 07/02 A2995 RMK A01 T00720017  RH  068%=      5-min Rain = 0
KHA3 191136Z 26004KT 07/02 A2995 RMK A01 T00730017  RH  068%=      5-min Rain = 0
KHA3 191137Z 26004KT 07/02 A2995 RMK A01 T00730017  RH  068%=      5-min Rain = 0
KHA3 191138Z 26004KT 07/02 A2995 RMK A01 T00740017  RH  067%=      5-min Rain = 0
KHA3 191139Z 25004KT 07/02 A2995 RMK A01 T00740017  RH  067%=      5-min Rain = 0
KHA3 191140Z 25005KT 08/02 A2995 RMK A01 T00750017  RH  067%=      5-min Rain = 0
KHA3 191141Z 24005KT 07/02 A2995 RMK A01 T00740017  RH  067%=      5-min Rain = 0
KHA3 191142Z 24005KT 07/02 A2995 RMK A01 T00720016  RH  068%=      5-min Rain = 0
KHA3 191143Z 24005KT 07/02 A2995 RMK A01 T00690015  RH  069%=      5-min Rain = 0
KHA3 191144Z 24005KT 07/02 A2995 RMK A01 T00660016  RH  070%=      5-min Rain = 0
KHA3 191145Z 24005KT 06/02 A2995 RMK A01 T00630016  RH  072%=      5-min Rain = 0
KHA3 191146Z 25005KT 06/02 A2995 RMK A01 T00620016  RH  073%=      5-min Rain = 0
KHA3 191147Z 25005KT 06/02 A2995 RMK A01 T00610016  RH  073%=      5-min Rain = 0
KHA3 191148Z 25005KT 06/02 A2995 RMK A01 T00600016  RH  073%=      5-min Rain = 0
KHA3 191149Z 24005KT 06/02 A2995 RMK A01 T00600016  RH  073%=      5-min Rain = 0
KHA3 191150Z 25005KT 06/02 A2995 RMK A01 T00610017  RH  073%=      5-min Rain = 0
KHA3 191151Z 25005KT 06/02 A2995 RMK A01 T00630017  RH  072%=      5-min Rain = 0
KHA3 191152Z 25005KT 06/02 A2995 RMK A01 T00640017  RH  072%=      5-min Rain = 0
KHA3 191153Z 25005KT 07/02 A2995 RMK A01 T00650017  RH  071%=      5-min Rain = 0
KHA3 191154Z 26004KT 07/02 A2995 RMK A01 T00670017  RH  070%=      5-min Rain = 0
KHA3 191155Z 25005KT 07/02 A2995 RMK A01 T00690017  RH  070%=      5-min Rain = 0
KHA3 191156Z 26005KT 07/02 A2995 RMK A01 T00690017  RH  069%=      5-min Rain = 0
KHA3 191157Z 25005KT 07/02 A2995 RMK A01 T00700017  RH  069%=      5-min Rain = 0
KHA3 191158Z 25005KT 07/02 A2995 RMK A01 T00700017  RH  069%=      5-min Rain = 0
KHA3 191159Z 25005KT 07/02 A2995 RMK A01 T00710017  RH  069%=      5-min Rain = 0
KHA3 191200Z 25005KT 07/02 A2995 RMK A01 T00720017  RH  068%=      5-min Rain = 0
KHA3 191201Z 25005KT 07/02 A2995 RMK A01 T00730017  RH  068%=      5-min Rain = 0
KHA3 191202Z 25005KT 07/02 A2995 RMK A01 T00730017  RH  068%=      5-min Rain = 0
KHA3 191203Z 25005KT 07/02 A2995 RMK A01 T00730017  RH  068%=      5-min Rain = 0
KHA3 191204Z 25005KT 07/02 A2995 RMK A01 T00720016  RH  068%=      5-min Rain = 0
KHA3 191205Z 25005KT 07/02 A2995 RMK A01 T00730016  RH  067%=      5-min Rain = 0
KHA3 191206Z 25005KT 08/02 A2995 RMK A01 T00750016  RH  066%=      5-min Rain = 0
KHA3 191207Z 25005KT 08/02 A2995 RMK A01 T00750016  RH  066%=      5-min Rain = 0
KHA3 191208Z 25005KT 07/02 A2995 RMK A01 T00740016  RH  066%=      5-min Rain = 0
KHA3 191209Z 25005KT 07/02 A2995 RMK A01 T00740016  RH  067%=      5-min Rain = 0
KHA3 191210Z 25005KT 07/02 A2995 RMK A01 T00730016  RH  067%=      5-min Rain = 0
KHA3 191211Z 25005KT 07/02 A2995 RMK A01 T00730016  RH  067%=      5-min Rain = 0
KHA3 191212Z 25004KT 07/02 A2995 RMK A01 T00740015  RH  066%=      5-min Rain = 0
KHA3 191213Z 24004KT 07/02 A2995 RMK A01 T00740015  RH  066%=      5-min Rain = 0
KHA3 191214Z 24004KT 07/02 A2995 RMK A01 T00740015  RH  066%=      5-min Rain = 0
KHA3 191215Z 22004KT 07/02 A2995 RMK A01 T00720015  RH  067%=      5-min Rain = 0
KHA3 191216Z 22004KT 07/02 A2995 RMK A01 T00700015  RH  068%=      5-min Rain = 0
KHA3 191217Z 23005KT 07/02 A2995 RMK A01 T00680015  RH  069%=      5-min Rain = 0
KHA3 191218Z 24005KT 07/02 A2995 RMK A01 T00680015  RH  069%=      5-min Rain = 0
KHA3 191219Z 25003KT 07/02 A2995 RMK A01 T00670015  RH  070%=      5-min Rain = 0
KHA3 191220Z 26003KT 07/02 A2995 RMK A01 T00660015  RH  070%=      5-min Rain = 0
KHA3 191221Z 27003KT 07/02 A2995 RMK A01 T00660015  RH  070%=      5-min Rain = 0
KHA3 191222Z 26003KT 07/02 A2995 RMK A01 T00670015  RH  070%=      5-min Rain = 0
KHA3 191223Z 26003KT 07/02 A2995 RMK A01 T00680015  RH  069%=      5-min Rain = 0
KHA3 191224Z 26003KT 07/02 A2995 RMK A01 T00700015  RH  068%=      5-min Rain = 0
KHA3 191225Z 26003KT 07/02 A2995 RMK A01 T00700015  RH  068%=      5-min Rain = 0
KHA3 191226Z 26003KT 07/02 A2995 RMK A01 T00700015  RH  068%=      5-min Rain = 0
KHA3 191227Z 26003KT 07/02 A2995 RMK A01 T00700016  RH  068%=      5-min Rain = 0
KHA3 191228Z 25003KT 07/02 A2995 RMK A01 T00700015  RH  068%=      5-min Rain = 0
KHA3 191229Z 25004KT 07/02 A2995 RMK A01 T00690016  RH  069%=      5-min Rain = 0
KHA3 191230Z 25004KT 07/02 A2995 RMK A01 T00680016  RH  069%=      5-min Rain = 0
KHA3 191231Z 24003KT 07/02 A2995 RMK A01 T00670015  RH  069%=      5-min Rain = 0
KHA3 191232Z 22003KT 07/02 A2995 RMK A01 T00670015  RH  069%=      5-min Rain = 0
KHA3 191233Z 22003KT 07/02 A2995 RMK A01 T00670015  RH  069%=      5-min Rain = 0
KHA3 191234Z 24004KT 07/01 A2995 RMK A01 T00680014  RH  069%=      5-min Rain = 0
KHA3 191235Z 26003KT 07/01 A2995 RMK A01 T00680014  RH  068%=      5-min Rain = 0
KHA3 191236Z 27003KT 07/01 A2995 RMK A01 T00690014  RH  068%=      5-min Rain = 0
KHA3 191237Z 27003KT 07/01 A2995 RMK A01 T00700014  RH  067%=      5-min Rain = 0
KHA3 191238Z 27003KT 07/01 A2995 RMK A01 T00720014  RH  067%=      5-min Rain = 0
KHA3 191239Z 27003KT 07/01 A2995 RMK A01 T00730014  RH  066%=      5-min Rain = 0
KHA3 191240Z 27003KT 07/01 A2995 RMK A01 T00730014  RH  066%=      5-min Rain = 0
KHA3 191241Z 26004KT 07/01 A2995 RMK A01 T00740014  RH  066%=      5-min Rain = 0
KHA3 191242Z 26004KT 08/01 A2995 RMK A01 T00750014  RH  065%=      5-min Rain = 0
KHA3 191243Z 26004KT 08/01 A2995 RMK A01 T00750014  RH  065%=      5-min Rain = 0
KHA3 191244Z 26004KT 08/01 A2995 RMK A01 T00750014  RH  065%=      5-min Rain = 0
KHA3 191245Z 26005KT 08/01 A2995 RMK A01 T00760014  RH  065%=      5-min Rain = 0
KHA3 191246Z 26005KT 08/01 A2995 RMK A01 T00770013  RH  064%=      5-min Rain = 0
KHA3 191247Z 26005KT 08/01 A2995 RMK A01 T00770013  RH  064%=      5-min Rain = 0
KHA3 191248Z 25005KT 08/01 A2995 RMK A01 T00770013  RH  064%=      5-min Rain = 0
KHA3 191249Z 25005KT 08/01 A2995 RMK A01 T00770013  RH  064%=      5-min Rain = 0
KHA3 191250Z 25005KT 08/01 A2995 RMK A01 T00780013  RH  064%=      5-min Rain = 0
KHA3 191251Z 25005KT 08/01 A2995 RMK A01 T00780013  RH  063%=      5-min Rain = 0
KHA3 191252Z 25004KT 08/01 A2995 RMK A01 T00780013  RH  063%=      5-min Rain = 0
KHA3 191253Z 26004KT 08/01 A2995 RMK A01 T00780013  RH  063%=      5-min Rain = 0
KHA3 191254Z 26004KT 08/01 A2995 RMK A01 T00780013  RH  063%=      5-min Rain = 0
KHA3 191255Z 26004KT 08/01 A2995 RMK A01 T00790013  RH  063%=      5-min Rain = 0
KHA3 191256Z 26004KT 08/01 A2995 RMK A01 T00780013  RH  063%=      5-min Rain = 0
KHA3 191257Z 26004KT 08/01 A2995 RMK A01 T00780013  RH  063%=      5-min Rain = 0
KHA3 191258Z 26004KT 08/01 A2995 RMK A01 T00780013  RH  064%=      5-min Rain = 0
KHA3 191259Z 26004KT 08/01 A2995 RMK A01 T00760012  RH  064%=      5-min Rain = 0
KHA3 191300Z 26004KT 08/01 A2995 RMK A01 T00750013  RH  065%=      5-min Rain = 0
KHA3 191301Z 27003KT 08/01 A2995 RMK A01 T00750013  RH  064%=      5-min Rain = 0
KHA3 191302Z 27003KT 08/01 A2995 RMK A01 T00760013  RH  064%=      5-min Rain = 0
KHA3 191303Z 28003KT 08/01 A2995 RMK A01 T00760013  RH  064%=      5-min Rain = 0
KHA3 191304Z 28003KT 08/01 A2995 RMK A01 T00760013  RH  064%=      5-min Rain = 0
KHA3 191305Z 28003KT 08/01 A2995 RMK A01 T00770013  RH  064%=      5-min Rain = 0
KHA3 191306Z 28003KT 08/01 A2995 RMK A01 T00780013  RH  064%=      5-min Rain = 0
KHA3 191307Z 28003KT 08/01 A2995 RMK A01 T00780013  RH  063%=      5-min Rain = 0
KHA3 191308Z 28003KT 08/01 A2995 RMK A01 T00790013  RH  063%=      5-min Rain = 0
KHA3 191309Z 29003KT 08/01 A2995 RMK A01 T00800013  RH  063%=      5-min Rain = 0
KHA3 191310Z 29003KT 08/01 A2995 RMK A01 T00800013  RH  062%=      5-min Rain = 0
KHA3 191311Z 29003KT 08/01 A2995 RMK A01 T00820013  RH  062%=      5-min Rain = 0
KHA3 191312Z 29003KT 08/01 A2995 RMK A01 T00820012  RH  061%=      5-min Rain = 0
KHA3 191313Z 29003KT 08/01 A2995 RMK A01 T00830013  RH  061%=      5-min Rain = 0
KHA3 191314Z 29003KT 08/01 A2995 RMK A01 T00840013  RH  061%=      5-min Rain = 0
KHA3 191315Z 28003KT 09/01 A2995 RMK A01 T00850013  RH  060%=      5-min Rain = 0
KHA3 191316Z 28003KT 09/01 A2995 RMK A01 T00850013  RH  060%=      5-min Rain = 0
KHA3 191317Z 28002KT 09/01 A2995 RMK A01 T00860013  RH  060%=      5-min Rain = 0
KHA3 191318Z 29002KT 09/01 A2995 RMK A01 T00860012  RH  060%=      5-min Rain = 0
KHA3 191319Z 29002KT 09/01 A2995 RMK A01 T00860012  RH  060%=      5-min Rain = 0
KHA3 191320Z 29002KT 09/01 A2995 RMK A01 T00860012  RH  060%=      5-min Rain = 0
KHA3 191321Z 29002KT 09/01 A2995 RMK A01 T00860012  RH  060%=      5-min Rain = 0
KHA3 191322Z 29002KT 09/01 A2995 RMK A01 T00850012  RH  060%=      5-min Rain = 0
KHA3 191323Z 29001KT 09/01 A2995 RMK A01 T00860012  RH  060%=      5-min Rain = 0
KHA3 191324Z 29001KT 09/01 A2994 RMK A01 T00860012  RH  060%=      5-min Rain = 0
KHA3 191325Z 29001KT 09/01 A2994 RMK A01 T00870012  RH  060%=      5-min Rain = 0
KHA3 191326Z 29001KT 09/01 A2994 RMK A01 T00870012  RH  059%=      5-min Rain = 0
KHA3 191327Z 29001KT 09/01 A2994 RMK A01 T00870013  RH  059%=      5-min Rain = 0
KHA3 191328Z 29001KT 09/01 A2994 RMK A01 T00870012  RH  059%=      5-min Rain = 0
KHA3 191329Z 30001KT 09/01 A2994 RMK A01 T00880012  RH  059%=      5-min Rain = 0
KHA3 191330Z 31001KT 09/01 A2994 RMK A01 T00880012  RH  059%=      5-min Rain = 0
KHA3 191331Z 32001KT 09/01 A2994 RMK A01 T00880012  RH  059%=      5-min Rain = 0
KHA3 191332Z 32001KT 09/01 A2994 RMK A01 T00890012  RH  058%=      5-min Rain = 0
KHA3 191333Z 32001KT 09/01 A2994 RMK A01 T00900012  RH  058%=      5-min Rain = 0
KHA3 191334Z 32001KT 09/01 A2994 RMK A01 T00900012  RH  058%=      5-min Rain = 0
KHA3 191335Z 33001KT 09/01 A2994 RMK A01 T00910012  RH  058%=      5-min Rain = 0
KHA3 191336Z 33001KT 09/01 A2994 RMK A01 T00910012  RH  058%=      5-min Rain = 0
KHA3 191337Z 33001KT 09/01 A2994 RMK A01 T00920012  RH  057%=      5-min Rain = 0
KHA3 191338Z 33001KT 09/01 A2994 RMK A01 T00920012  RH  057%=      5-min Rain = 0
KHA3 191339Z 33000KT 09/01 A2994 RMK A01 T00920012  RH  057%=      5-min Rain = 0
KHA3 191340Z 33000KT 09/01 A2994 RMK A01 T00920012  RH  057%=      5-min Rain = 0
KHA3 191341Z 33000KT 09/01 A2994 RMK A01 T00920012  RH  057%=      5-min Rain = 0
KHA3 191342Z 33000KT 09/01 A2994 RMK A01 T00930012  RH  057%=      5-min Rain = 0
KHA3 191343Z 00000KT 09/01 A2994 RMK A01 T00930012  RH  057%=      5-min Rain = 0
KHA3 191344Z 00000KT 09/01 A2994 RMK A01 T00940012  RH  056%=      5-min Rain = 0
KHA3 191345Z 00000KT 09/01 A2994 RMK A01 T00940011  RH  056%=      5-min Rain = 0
KHA3 191346Z 00000KT 10/01 A2994 RMK A01 T00950011  RH  056%=      5-min Rain = 0
KHA3 191347Z 00000KT 10/01 A2994 RMK A01 T00960011  RH  056%=      5-min Rain = 0
KHA3 191348Z 00000KT 10/01 A2994 RMK A01 T00960011  RH  056%=      5-min Rain = 0
KHA3 191349Z 00000KT 10/01 A2994 RMK A01 T00960014  RH  056%=      5-min Rain = 0
KHA3 191350Z 00000KT 09/02 A2994 RMK A01 T00940018  RH  059%=      5-min Rain = 0
KHA3 191351Z 08000KT 09/02 A2994 RMK A01 T00910019  RH  061%=      5-min Rain = 0
KHA3 191352Z 08001KT 09/02 A2994 RMK A01 T00890018  RH  061%=      5-min Rain = 0
KHA3 191353Z 08001KT 09/02 A2994 RMK A01 T00870017  RH  061%=      5-min Rain = 0
KHA3 191354Z 08001KT 09/02 A2994 RMK A01 T00870016  RH  061%=      5-min Rain = 0
KHA3 191355Z 08001KT 09/02 A2994 RMK A01 T00880016  RH  061%=      5-min Rain = 0
KHA3 191356Z 09001KT 09/02 A2994 RMK A01 T00890017  RH  060%=      5-min Rain = 0
KHA3 191357Z 09001KT 09/02 A2994 RMK A01 T00910017  RH  060%=      5-min Rain = 0
KHA3 191358Z 08000KT 09/02 A2994 RMK A01 T00920019  RH  060%=      5-min Rain = 0
KHA3 191359Z 08001KT 09/02 A2994 RMK A01 T00930020  RH  060%=      5-min Rain = 0
KHA3 191400Z 08001KT 09/02 A2994 RMK A01 T00930022  RH  061%=      5-min Rain = 0
KHA3 191401Z 09001KT 09/02 A2994 RMK A01 T00930021  RH  060%=      5-min Rain = 0
KHA3 191402Z 08001KT 09/02 A2994 RMK A01 T00940022  RH  061%=      5-min Rain = 0
KHA3 191403Z 08001KT 10/03 A2994 RMK A01 T00950026  RH  062%=      5-min Rain = 0
KHA3 191404Z 08001KT 10/02 A2994 RMK A01 T00960023  RH  060%=      5-min Rain = 0
KHA3 191405Z 09001KT 10/03 A2994 RMK A01 T00970025  RH  061%=      5-min Rain = 0
KHA3 191406Z 10001KT 10/03 A2994 RMK A01 T00990025  RH  060%=      5-min Rain = 0
KHA3 191407Z 11001KT 10/03 A2994 RMK A01 T01000028  RH  061%=      5-min Rain = 0
KHA3 191408Z 11002KT 10/03 A2994 RMK A01 T01010030  RH  061%=      5-min Rain = 0
KHA3 191409Z 11002KT 10/03 A2994 RMK A01 T01020030  RH  061%=      5-min Rain = 0
KHA3 191410Z 11002KT 10/03 A2994 RMK A01 T01030031  RH  061%=      5-min Rain = 0
KHA3 191411Z 11002KT 10/03 A2994 RMK A01 T01040031  RH  060%=      5-min Rain = 0
KHA3 191412Z 12002KT 11/03 A2994 RMK A01 T01050028  RH  059%=      5-min Rain = 0
KHA3 191413Z 12002KT 11/03 A2994 RMK A01 T01050027  RH  058%=      5-min Rain = 0
KHA3 191414Z 12003KT 11/03 A2994 RMK A01 T01050026  RH  058%=      5-min Rain = 0
KHA3 191415Z 11002KT 11/03 A2994 RMK A01 T01050028  RH  059%=      5-min Rain = 0
KHA3 191416Z 11002KT 11/03 A2994 RMK A01 T01060027  RH  058%=      5-min Rain = 0
KHA3 191417Z 11002KT 11/03 A2994 RMK A01 T01070029  RH  058%=      5-min Rain = 0
KHA3 191418Z 11003KT 11/03 A2994 RMK A01 T01090030  RH  058%=      5-min Rain = 0
KHA3 191419Z 11003KT 11/03 A2994 RMK A01 T01110029  RH  057%=      5-min Rain = 0
KHA3 191420Z 11003KT 11/03 A2994 RMK A01 T01120027  RH  056%=      5-min Rain = 0
KHA3 191421Z 11002KT 11/03 A2994 RMK A01 T01130026  RH  055%=      5-min Rain = 0
KHA3 191422Z 11002KT 11/03 A2994 RMK A01 T01140027  RH  055%=      5-min Rain = 0
KHA3 191423Z 11002KT 12/03 A2994 RMK A01 T01160028  RH  055%=      5-min Rain = 0
KHA3 191424Z 11002KT 12/03 A2994 RMK A01 T01170028  RH  054%=      5-min Rain = 0
KHA3 191425Z 10002KT 12/03 A2994 RMK A01 T01180026  RH  053%=      5-min Rain = 0
KHA3 191426Z 09002KT 12/03 A2994 RMK A01 T01190028  RH  053%=      5-min Rain = 0
KHA3 191427Z 09002KT 12/03 A2994 RMK A01 T01200026  RH  053%=      5-min Rain = 0
KHA3 191428Z 09001KT 12/03 A2994 RMK A01 T01210027  RH  053%=      5-min Rain = 0
KHA3 191429Z 09002KT 12/03 A2994 RMK A01 T01220027  RH  052%=      5-min Rain = 0
KHA3 191430Z 09002KT 12/02 A2994 RMK A01 T01220024  RH  051%=      5-min Rain = 0
KHA3 191431Z 08001KT 12/03 A2994 RMK A01 T01230027  RH  052%=      5-min Rain = 0
KHA3 191432Z 07001KT 12/03 A2994 RMK A01 T01240029  RH  052%=      5-min Rain = 0
KHA3 191433Z 08001KT 13/03 A2994 RMK A01 T01250029  RH  052%=      5-min Rain = 0
KHA3 191434Z 07001KT 13/03 A2994 RMK A01 T01250029  RH  052%=      5-min Rain = 0
KHA3 191435Z 06001KT 13/03 A2994 RMK A01 T01260029  RH  052%=      5-min Rain = 0
KHA3 191436Z 08001KT 13/03 A2994 RMK A01 T01270030  RH  052%=      5-min Rain = 0
KHA3 191437Z 07001KT 13/03 A2994 RMK A01 T01280029  RH  051%=      5-min Rain = 0
KHA3 191438Z 09002KT 13/03 A2994 RMK A01 T01290032  RH  052%=      5-min Rain = 0
KHA3 191439Z 08002KT 13/03 A2994 RMK A01 T01300033  RH  051%=      5-min Rain = 0
KHA3 191440Z 08003KT 13/03 A2994 RMK A01 T01320034  RH  051%=      5-min Rain = 0
KHA3 191441Z 09003KT 13/04 A2994 RMK A01 T01330035  RH  051%=      5-min Rain = 0
KHA3 191442Z 09004KT 14/03 A2994 RMK A01 T01350034  RH  051%=      5-min Rain = 0
KHA3 191443Z 08004KT 14/03 A2994 RMK A01 T01360031  RH  049%=      5-min Rain = 0
KHA3 191444Z 08004KT 14/03 A2994 RMK A01 T01360030  RH  049%=      5-min Rain = 0
KHA3 191445Z 09004KT 14/03 A2994 RMK A01 T01360029  RH  048%=      5-min Rain = 0
KHA3 191446Z 09004KT 14/03 A2994 RMK A01 T01360028  RH  048%=      5-min Rain = 0
KHA3 191447Z 10004KT 14/03 A2994 RMK A01 T01370033  RH  049%=      5-min Rain = 0
KHA3 191448Z 10005KT 14/03 A2994 RMK A01 T01390033  RH  049%=      5-min Rain = 0
KHA3 191449Z 10005KT 14/03 A2994 RMK A01 T01400033  RH  049%=      5-min Rain = 0
KHA3 191450Z 11006KT 14/03 A2994 RMK A01 T01410030  RH  047%=      5-min Rain = 0
KHA3 191451Z 10006KT 14/03 A2994 RMK A01 T01410031  RH  047%=      5-min Rain = 0
KHA3 191452Z 10006KT 14/03 A2994 RMK A01 T01420028  RH  046%=      5-min Rain = 0
KHA3 191453Z 11006KT 14/03 A2994 RMK A01 T01420027  RH  046%=      5-min Rain = 0
KHA3 191454Z 10006KT 14/03 A2994 RMK A01 T01420027  RH  046%=      5-min Rain = 0
KHA3 191455Z 10006KT 14/03 A2994 RMK A01 T01420027  RH  046%=      5-min Rain = 0
KHA3 191456Z 10006KT 14/03 A2994 RMK A01 T01420027  RH  046%=      5-min Rain = 0
KHA3 191457Z 11006KT 14/03 A2994 RMK A01 T01420028  RH  046%=      5-min Rain = 0
KHA3 191458Z 11007KT 14/03 A2994 RMK A01 T01430029  RH  046%=      5-min Rain = 0
KHA3 191459Z 10006KT 14/03 A2994 RMK A01 T01440029  RH  046%=      5-min Rain = 0
KHA3 191500Z 10005KT 14/03 A2994 RMK A01 T01440030  RH  046%=      5-min Rain = 0
KHA3 191501Z 10004KT 15/03 A2994 RMK A01 T01450031  RH  046%=      5-min Rain = 0
KHA3 191502Z 11004KT 15/03 A2994 RMK A01 T01470033  RH  046%=      5-min Rain = 0
KHA3 191503Z 11005KT 15/03 A2994 RMK A01 T01490033  RH  046%=      5-min Rain = 0
KHA3 191504Z 11005KT 15/03 A2994 RMK A01 T01510032  RH  045%=      5-min Rain = 0
KHA3 191505Z 11005KT 15/03 A2994 RMK A01 T01510032  RH  045%=      5-min Rain = 0
KHA3 191506Z 11004KT 15/03 A2994 RMK A01 T01520033  RH  045%=      5-min Rain = 0
KHA3 191507Z 12006KT 15/03 A2995 RMK A01 T01530031  RH  044%=      5-min Rain = 0
KHA3 191508Z 12006KT 15/03 A2995 RMK A01 T01530030  RH  044%=      5-min Rain = 0
KHA3 191509Z 12006KT 15/03 A2995 RMK A01 T01530030  RH  044%=      5-min Rain = 0
KHA3 191510Z 13005KT 15/03 A2995 RMK A01 T01530031  RH  044%=      5-min Rain = 0
KHA3 191511Z 15005KT 15/03 A2995 RMK A01 T01540032  RH  044%=      5-min Rain = 0
KHA3 191512Z 15006KT 16/03 A2995 RMK A01 T01560033  RH  044%=      5-min Rain = 0
KHA3 191513Z 17007KT 16/03 A2995 RMK A01 T01570034  RH  044%=      5-min Rain = 0
KHA3 191514Z 15009KT 16/03 A2995 RMK A01 T01580030  RH  042%=      5-min Rain = 0
KHA3 191515Z 15008KT 16/03 A2995 RMK A01 T01560029  RH  042%=      5-min Rain = 0
KHA3 191516Z 15010KT 16/03 A2995 RMK A01 T01550031  RH  043%=      5-min Rain = 0
KHA3 191517Z 15009KT 15/03 A2995 RMK A01 T01540030  RH  044%=      5-min Rain = 0
KHA3 191518Z 16010KT 15/03 A2995 RMK A01 T01530029  RH  043%=      5-min Rain = 0
KHA3 191519Z 17010KT 15/03 A2995 RMK A01 T01530029  RH  043%=      5-min Rain = 0
KHA3 191520Z 17008KT 15/03 A2996 RMK A01 T01510032  RH  045%=      5-min Rain = 0
KHA3 191521Z 17008KT 15/03 A2996 RMK A01 T01480034  RH  046%=      5-min Rain = 0
KHA3 191522Z 17008KT 15/03 A2996 RMK A01 T01460033  RH  047%=      5-min Rain = 0
KHA3 191523Z 18008KT 15/03 A2996 RMK A01 T01450033  RH  047%=      5-min Rain = 0
KHA3 191524Z 18006KT 14/03 A2996 RMK A01 T01440034  RH  048%=      5-min Rain = 0
KHA3 191525Z 16007KT 14/04 A2996 RMK A01 T01440036  RH  048%=      5-min Rain = 0
KHA3 191526Z 16008KT 14/03 A2996 RMK A01 T01440033  RH  047%=      5-min Rain = 0
KHA3 191527Z 17008KT 14/03 A2996 RMK A01 T01430032  RH  047%=      5-min Rain = 0
KHA3 191528Z 17008KT 14/03 A2996 RMK A01 T01420030  RH  047%=      5-min Rain = 0
KHA3 191529Z 17007KT 14/03 A2996 RMK A01 T01410030  RH  047%=      5-min Rain = 0
KHA3 191530Z 17007KT 14/03 A2996 RMK A01 T01400030  RH  047%=      5-min Rain = 0
KHA3 191531Z 17008KT 14/03 A2996 RMK A01 T01410031  RH  048%=      5-min Rain = 0
KHA3 191532Z 16009KT 14/03 A2996 RMK A01 T01420030  RH  047%=      5-min Rain = 0
KHA3 191533Z 17008KT 14/03 A2996 RMK A01 T01430030  RH  047%=      5-min Rain = 0
KHA3 191534Z 18008KT 15/03 A2996 RMK A01 T01450030  RH  046%=      5-min Rain = 0
KHA3 191535Z 17007KT 15/03 A2996 RMK A01 T01450028  RH  045%=      5-min Rain = 0
KHA3 191536Z 19008KT 15/03 A2996 RMK A01 T01450031  RH  046%=      5-min Rain = 0
KHA3 191537Z 18011KT 15/03 A2996 RMK A01 T01470032  RH  046%=      5-min Rain = 0
KHA3 191538Z 18010KT 15/03 A2996 RMK A01 T01470032  RH  046%=      5-min Rain = 0
KHA3 191539Z 20009KT 15/04 A2996 RMK A01 T01480035  RH  047%=      5-min Rain = 0
KHA3 191540Z 20010KT 15/04 A2996 RMK A01 T01490036  RH  047%=      5-min Rain = 0
KHA3 191541Z 20009KT 15/04 A2996 RMK A01 T01490036  RH  047%=      5-min Rain = 0
KHA3 191542Z 22008KT 15/04 A2996 RMK A01 T01490038  RH  047%=      5-min Rain = 0
KHA3 191543Z 21010KT 15/04 A2996 RMK A01 T01500038  RH  047%=      5-min Rain = 0
KHA3 191544Z 20009KT 15/04 A2996 RMK A01 T01500037  RH  047%=      5-min Rain = 0
KHA3 191545Z 18009KT 15/04 A2996 RMK A01 T01500035  RH  046%=      5-min Rain = 0
KHA3 191546Z 20009KT 15/03 A2996 RMK A01 T01520034  RH  045%=      5-min Rain = 0
KHA3 191547Z 20009KT 15/04 A2996 RMK A01 T01530037  RH  046%=      5-min Rain = 0
KHA3 191548Z 20011KT 15/04 A2996 RMK A01 T01540036  RH  045%=      5-min Rain = 0
KHA3 191549Z 20011KT 15/04 A2996 RMK A01 T01530035  RH  045%=      5-min Rain = 0
KHA3 191550Z 20012KT 15/03 A2996 RMK A01 T01520034  RH  045%=      5-min Rain = 0
KHA3 191551Z 19011KT 15/03 A2996 RMK A01 T01510032  RH  045%=      5-min Rain = 0
KHA3 191552Z 19010KT 15/03 A2996 RMK A01 T01500032  RH  045%=      5-min Rain = 0
KHA3 191553Z 19008KT 15/03 A2996 RMK A01 T01500033  RH  045%=      5-min Rain = 0
KHA3 191554Z 18010KT 15/03 A2996 RMK A01 T01530034  RH  045%=      5-min Rain = 0
KHA3 191555Z 18010KT 15/03 A2996 RMK A01 T01540032  RH  044%=      5-min Rain = 0
KHA3 191556Z 18009KT 15/03 A2996 RMK A01 T01540032  RH  044%=      5-min Rain = 0
KHA3 191557Z 18009KT 16/03 A2996 RMK A01 T01550032  RH  044%=      5-min Rain = 0
KHA3 191558Z 17009KT 16/03 A2996 RMK A01 T01550032  RH  044%=      5-min Rain = 0
KHA3 191559Z 19007KT 16/03 A2996 RMK A01 T01570034  RH  044%=      5-min Rain = 0
KHA3 191600Z 19009KT 16/04 A2996 RMK A01 T01600035  RH  043%=      5-min Rain = 0
KHA3 191601Z 19008KT 16/03 A2996 RMK A01 T01610034  RH  043%=      5-min Rain = 0
KHA3 191602Z 18009KT 16/03 A2996 RMK A01 T01610034  RH  043%=      5-min Rain = 0
KHA3 191603Z 18008KT 16/03 A2996 RMK A01 T01620033  RH  042%=      5-min Rain = 0
KHA3 191604Z 17008KT 16/03 A2996 RMK A01 T01620034  RH  042%=      5-min Rain = 0
KHA3 191605Z 18006KT 16/04 A2996 RMK A01 T01640035  RH  042%=      5-min Rain = 0
KHA3 191606Z 18009KT 16/04 A2996 RMK A01 T01640035  RH  042%=      5-min Rain = 0
KHA3 191607Z 17007KT 16/03 A2996 RMK A01 T01630033  RH  042%=      5-min Rain = 0
KHA3 191608Z 16007KT 16/04 A2996 RMK A01 T01630035  RH  042%=      5-min Rain = 0
KHA3 191609Z 16007KT 17/04 A2996 RMK A01 T01660038  RH  042%=      5-min Rain = 0
KHA3 191610Z 17009KT 17/04 A2996 RMK A01 T01680035  RH  041%=      5-min Rain = 0
KHA3 191611Z 18007KT 17/04 A2996 RMK A01 T01680035  RH  041%=      5-min Rain = 0
KHA3 191612Z 17005KT 17/04 A2996 RMK A01 T01680036  RH  041%=      5-min Rain = 0
KHA3 191613Z 16007KT 17/04 A2996 RMK A01 T01690037  RH  041%=      5-min Rain = 0
KHA3 191614Z 17006KT 17/04 A2996 RMK A01 T01710037  RH  041%=      5-min Rain = 0
KHA3 191615Z 18006KT 17/04 A2996 RMK A01 T01740037  RH  040%=      5-min Rain = 0
KHA3 191616Z 18006KT 17/04 A2996 RMK A01 T01740037  RH  040%=      5-min Rain = 0
KHA3 191617Z 17007KT 18/04 A2996 RMK A01 T01750037  RH  040%=      5-min Rain = 0
KHA3 191618Z 18008KT 18/04 A2996 RMK A01 T01770037  RH  039%=      5-min Rain = 0
KHA3 191619Z 16007KT 18/04 A2996 RMK A01 T01780036  RH  039%=      5-min Rain = 0
KHA3 191620Z 17007KT 18/04 A2996 RMK A01 T01780037  RH  039%=      5-min Rain = 0
KHA3 191621Z 16007KT 18/04 A2996 RMK A01 T01790037  RH  039%=      5-min Rain = 0
KHA3 191622Z 16007KT 18/04 A2996 RMK A01 T01810037  RH  038%=      5-min Rain = 0
KHA3 191623Z 15006KT 18/04 A2996 RMK A01 T01810036  RH  038%=      5-min Rain = 0
KHA3 191624Z 15005KT 18/04 A2996 RMK A01 T01810038  RH  039%=      5-min Rain = 0
KHA3 191625Z 16007KT 18/04 A2996 RMK A01 T01830038  RH  038%=      5-min Rain = 0
KHA3 191626Z 18009KT 19/04 A2996 RMK A01 T01850037  RH  038%=      5-min Rain = 0
KHA3 191627Z 18007KT 19/04 A2996 RMK A01 T01850036  RH  037%=      5-min Rain = 0
KHA3 191628Z 19008KT 19/04 A2996 RMK A01 T01850037  RH  037%=      5-min Rain = 0
KHA3 191629Z 18007KT 19/04 A2996 RMK A01 T01850037  RH  037%=      5-min Rain = 0
KHA3 191630Z 18007KT 19/04 A2996 RMK A01 T01850037  RH  037%=      5-min Rain = 0
KHA3 191631Z 16006KT 19/04 A2996 RMK A01 T01850038  RH  038%=      5-min Rain = 0
KHA3 191632Z 14006KT 19/04 A2996 RMK A01 T01870037  RH  037%=      5-min Rain = 0
KHA3 191633Z 14006KT 19/04 A2996 RMK A01 T01880038  RH  037%=      5-min Rain = 0
KHA3 191634Z 15009KT 19/04 A2996 RMK A01 T01890037  RH  037%=      5-min Rain = 0
KHA3 191635Z 15009KT 19/03 A2996 RMK A01 T01890034  RH  036%=      5-min Rain = 0
KHA3 191636Z 14008KT 19/04 A2996 RMK A01 T01880035  RH  036%=      5-min Rain = 0
KHA3 191637Z 14009KT 19/04 A2996 RMK A01 T01880036  RH  036%=      5-min Rain = 0
KHA3 191638Z 15010KT 19/03 A2996 RMK A01 T01890034  RH  036%=      5-min Rain = 0
KHA3 191639Z 15006KT 19/04 A2996 RMK A01 T01880035  RH  036%=      5-min Rain = 0
KHA3 191640Z 16006KT 19/04 A2995 RMK A01 T01900039  RH  037%=      5-min Rain = 0
KHA3 191641Z 16007KT 19/04 A2995 RMK A01 T01920037  RH  036%=      5-min Rain = 0
KHA3 191642Z 15007KT 19/04 A2995 RMK A01 T01940038  RH  036%=      5-min Rain = 0
KHA3 191643Z 16007KT 20/04 A2995 RMK A01 T01960038  RH  035%=      5-min Rain = 0
KHA3 191644Z 14007KT 20/04 A2995 RMK A01 T01970038  RH  035%=      5-min Rain = 0
KHA3 191645Z 14008KT 20/04 A2995 RMK A01 T01970039  RH  035%=      5-min Rain = 0
KHA3 191646Z 15008KT 20/04 A2995 RMK A01 T01980039  RH  035%=      5-min Rain = 0
KHA3 191647Z 15010KT 20/04 A2995 RMK A01 T01980036  RH  034%=      5-min Rain = 0
KHA3 191648Z 15010KT 20/04 A2995 RMK A01 T01960036  RH  035%=      5-min Rain = 0
KHA3 191649Z 15010KT 19/03 A2995 RMK A01 T01940034  RH  035%=      5-min Rain = 0
KHA3 191650Z 17009KT 19/04 A2995 RMK A01 T01930036  RH  035%=      5-min Rain = 0
KHA3 191651Z 16008KT 19/04 A2995 RMK A01 T01930035  RH  035%=      5-min Rain = 0
KHA3 191652Z 16010KT 19/04 A2995 RMK A01 T01940036  RH  035%=      5-min Rain = 0
KHA3 191653Z 15009KT 20/04 A2995 RMK A01 T01950036  RH  035%=      5-min Rain = 0
KHA3 191654Z 17009KT 20/04 A2995 RMK A01 T01950037  RH  035%=      5-min Rain = 0
KHA3 191655Z 17009KT 20/04 A2995 RMK A01 T01960038  RH  035%=      5-min Rain = 0
KHA3 191656Z 17010KT 20/04 A2995 RMK A01 T01970038  RH  035%=      5-min Rain = 0
KHA3 191657Z 17009KT 20/04 A2995 RMK A01 T01980038  RH  035%=      5-min Rain = 0
KHA3 191658Z 17008KT 20/04 A2995 RMK A01 T01990039  RH  035%=      5-min Rain = 0
KHA3 191659Z 16010KT 20/04 A2995 RMK A01 T01990039  RH  035%=      5-min Rain = 0
KHA3 191700Z 16005KT 20/04 A2995 RMK A01 T01990039  RH  035%=      5-min Rain = 0
KHA3 191701Z 15005KT 20/04 A2995 RMK A01 T02000041  RH  035%=      5-min Rain = 0
KHA3 191702Z 16007KT 20/04 A2995 RMK A01 T02020041  RH  035%=      5-min Rain = 0
KHA3 191703Z 15008KT 20/04 A2995 RMK A01 T02020041  RH  035%=      5-min Rain = 0
KHA3 191704Z 16009KT 20/04 A2995 RMK A01 T02030043  RH  035%=      5-min Rain = 0
KHA3 191705Z 16007KT 21/04 A2995 RMK A01 T02050042  RH  034%=      5-min Rain = 0
KHA3 191706Z 16007KT 21/04 A2995 RMK A01 T02060044  RH  034%=      5-min Rain = 0
KHA3 191707Z 16006KT 21/04 A2995 RMK A01 T02080043  RH  034%=      5-min Rain = 0
KHA3 191708Z 14006KT 21/04 A2995 RMK A01 T02090044  RH  034%=      5-min Rain = 0
KHA3 191709Z 15007KT 21/04 A2994 RMK A01 T02090044  RH  034%=      5-min Rain = 0
KHA3 191710Z 16007KT 21/04 A2994 RMK A01 T02080044  RH  034%=      5-min Rain = 0
KHA3 191711Z 18007KT 21/04 A2994 RMK A01 T02050042  RH  034%=      5-min Rain = 0
KHA3 191712Z 19007KT 20/04 A2994 RMK A01 T02030043  RH  035%=      5-min Rain = 0
KHA3 191713Z 17008KT 20/04 A2994 RMK A01 T02020043  RH  035%=      5-min Rain = 0
KHA3 191714Z 16006KT 20/04 A2994 RMK A01 T02010043  RH  035%=      5-min Rain = 0
KHA3 191715Z 16007KT 20/05 A2994 RMK A01 T02020045  RH  036%=      5-min Rain = 0
KHA3 191716Z 15007KT 20/05 A2994 RMK A01 T02030046  RH  036%=      5-min Rain = 0
KHA3 191717Z 17007KT 21/05 A2994 RMK A01 T02050045  RH  035%=      5-min Rain = 0
KHA3 191718Z 16006KT 21/05 A2994 RMK A01 T02060046  RH  035%=      5-min Rain = 0
KHA3 191719Z 15007KT 21/05 A2994 RMK A01 T02070048  RH  035%=      5-min Rain = 0
KHA3 191720Z 14007KT 21/05 A2994 RMK A01 T02090046  RH  034%=      5-min Rain = 0
KHA3 191721Z 14008KT 21/05 A2994 RMK A01 T02080046  RH  034%=      5-min Rain = 0
KHA3 191722Z 15006KT 21/05 A2994 RMK A01 T02070047  RH  035%=      5-min Rain = 0
KHA3 191723Z 17010KT 21/05 A2994 RMK A01 T02080048  RH  035%=      5-min Rain = 0
KHA3 191724Z 17008KT 21/05 A2994 RMK A01 T02090048  RH  035%=      5-min Rain = 0
KHA3 191725Z 16007KT 21/05 A2994 RMK A01 T02100049  RH  035%=      5-min Rain = 0
KHA3 191726Z 15007KT 21/05 A2994 RMK A01 T02100047  RH  034%=      5-min Rain = 0
KHA3 191727Z 15006KT 21/05 A2993 RMK A01 T02090049  RH  035%=      5-min Rain = 0
KHA3 191728Z 16007KT 21/05 A2993 RMK A01 T02110050  RH  035%=      5-min Rain = 0
KHA3 191729Z 17009KT 21/05 A2993 RMK A01 T02110049  RH  035%=      5-min Rain = 0
KHA3 191730Z 17010KT 21/05 A2993 RMK A01 T02110049  RH  035%=      5-min Rain = 0
KHA3 191731Z 17008KT 21/05 A2993 RMK A01 T02100049  RH  035%=      5-min Rain = 0
KHA3 191732Z 16007KT 21/05 A2993 RMK A01 T02110051  RH  035%=      5-min Rain = 0
KHA3 191733Z 17007KT 21/05 A2993 RMK A01 T02140052  RH  035%=      5-min Rain = 0
KHA3 191734Z 17008KT 22/05 A2993 RMK A01 T02150053  RH  035%=      5-min Rain = 0
KHA3 191735Z 17010KT 22/05 A2993 RMK A01 T02180052  RH  034%=      5-min Rain = 0
KHA3 191736Z 18007KT 22/05 A2993 RMK A01 T02160050  RH  034%=      5-min Rain = 0
KHA3 191737Z 17008KT 21/05 A2993 RMK A01 T02130050  RH  035%=      5-min Rain = 0
KHA3 191738Z 18008KT 21/05 A2993 RMK A01 T02130054  RH  035%=      5-min Rain = 0
KHA3 191739Z 19010KT 22/05 A2993 RMK A01 T02150054  RH  035%=      5-min Rain = 0
KHA3 191740Z 18009KT 22/05 A2993 RMK A01 T02160054  RH  035%=      5-min Rain = 0
KHA3 191741Z 17008KT 22/05 A2993 RMK A01 T02160054  RH  035%=      5-min Rain = 0
KHA3 191742Z 17009KT 22/05 A2993 RMK A01 T02160054  RH  035%=      5-min Rain = 0
KHA3 191743Z 17008KT 22/05 A2993 RMK A01 T02150053  RH  035%=      5-min Rain = 0
KHA3 191744Z 19008KT 22/05 A2993 RMK A01 T02160054  RH  035%=      5-min Rain = 0
KHA3 191745Z 18007KT 22/05 A2993 RMK A01 T02150054  RH  035%=      5-min Rain = 0
KHA3 191746Z 18012KT 22/05 A2993 RMK A01 T02160054  RH  035%=      5-min Rain = 0
KHA3 191747Z 18011KT 22/05 A2993 RMK A01 T02160051  RH  034%=      5-min Rain = 0
KHA3 191748Z 17011KT 22/05 A2993 RMK A01 T02170051  RH  034%=      5-min Rain = 0
KHA3 191749Z 17009KT 22/05 A2993 RMK A01 T02180052  RH  034%=      5-min Rain = 0
KHA3 191750Z 17007KT 22/05 A2993 RMK A01 T02190053  RH  034%=      5-min Rain = 0
KHA3 191751Z 17007KT 22/06 A2992 RMK A01 T02210055  RH  034%=      5-min Rain = 0
KHA3 191752Z 16007KT 22/05 A2992 RMK A01 T02220054  RH  033%=      5-min Rain = 0
KHA3 191753Z 17006KT 22/06 A2992 RMK A01 T02230056  RH  034%=      5-min Rain = 0
KHA3 191754Z 18009KT 23/06 A2992 RMK A01 T02280057  RH  033%=      5-min Rain = 0
KHA3 191755Z 17010KT 23/06 A2992 RMK A01 T02300056  RH  032%=      5-min Rain = 0
KHA3 191756Z 18009KT 23/06 A2992 RMK A01 T02320056  RH  032%=      5-min Rain = 0
KHA3 191757Z 17008KT 23/06 A2992 RMK A01 T02330056  RH  032%=      5-min Rain = 0
KHA3 191758Z 17011KT 23/06 A2992 RMK A01 T02330055  RH  032%=      5-min Rain = 0
KHA3 191759Z 19009KT 23/05 A2992 RMK A01 T02310053  RH  032%=      5-min Rain = 0
KHA3 191800Z 18008KT 23/05 A2992 RMK A01 T02270053  RH  032%=      5-min Rain = 0
KHA3 191801Z 20010KT 23/05 A2992 RMK A01 T02260053  RH  032%=      5-min Rain = 0
KHA3 191802Z 19010KT 23/05 A2992 RMK A01 T02250053  RH  033%=      5-min Rain = 0
KHA3 191803Z 20010KT 22/05 A2992 RMK A01 T02230052  RH  033%=      5-min Rain = 0
KHA3 191804Z 21011KT 22/05 A2992 RMK A01 T02220052  RH  033%=      5-min Rain = 0
KHA3 191805Z 20010KT 22/05 A2992 RMK A01 T02230054  RH  033%=      5-min Rain = 0
KHA3 191806Z 20010KT 22/05 A2992 RMK A01 T02240054  RH  033%=      5-min Rain = 0
KHA3 191807Z 19009KT 22/06 A2992 RMK A01 T02240055  RH  033%=      5-min Rain = 0
KHA3 191808Z 18008KT 23/05 A2992 RMK A01 T02250054  RH  033%=      5-min Rain = 0
KHA3 191809Z 19010KT 23/06 A2992 RMK A01 T02270056  RH  033%=      5-min Rain = 0
KHA3 191810Z 18012KT 23/06 A2991 RMK A01 T02290055  RH  032%=      5-min Rain = 0
KHA3 191811Z 18011KT 23/06 A2991 RMK A01 T02310055  RH  032%=      5-min Rain = 0
KHA3 191812Z 18012KT 23/06 A2991 RMK A01 T02320055  RH  032%=      5-min Rain = 0
KHA3 191813Z 18011KT 23/05 A2991 RMK A01 T02330054  RH  031%=      5-min Rain = 0
KHA3 191814Z 17011KT 23/05 A2991 RMK A01 T02330054  RH  031%=      5-min Rain = 0
KHA3 191815Z 18010KT 23/05 A2991 RMK A01 T02330054  RH  031%=      5-min Rain = 0
KHA3 191816Z 19012KT 24/06 A2991 RMK A01 T02350056  RH  031%=      5-min Rain = 0
KHA3 191817Z 19012KT 24/06 A2991 RMK A01 T02360055  RH  031%=      5-min Rain = 0
KHA3 191818Z 19010KT 24/05 A2991 RMK A01 T02350054  RH  031%=      5-min Rain = 0
KHA3 191819Z 20012KT 23/06 A2991 RMK A01 T02330056  RH  032%=      5-min Rain = 0
KHA3 191820Z 20011KT 23/06 A2991 RMK A01 T02320055  RH  032%=      5-min Rain = 0
KHA3 191821Z 19009KT 23/06 A2991 RMK A01 T02310056  RH  032%=      5-min Rain = 0
KHA3 191822Z 20011KT 23/06 A2991 RMK A01 T02330057  RH  032%=      5-min Rain = 0
KHA3 191823Z 20010KT 23/06 A2991 RMK A01 T02340057  RH  032%=      5-min Rain = 0
KHA3 191824Z 19011KT 23/06 A2991 RMK A01 T02340057  RH  032%=      5-min Rain = 0
KHA3 191825Z 19010KT 23/06 A2991 RMK A01 T02320056  RH  032%=      5-min Rain = 0
KHA3 191826Z 19010KT 23/06 A2991 RMK A01 T02310058  RH  033%=      5-min Rain = 0
KHA3 191827Z 19010G16KT 23/06 A299 RMK A01 T02310057  RH  032%=      5-min Rain = 0
KHA3 191828Z 19012KT 23/06 A299 RMK A01 T02320058  RH  032%=      5-min Rain = 0
KHA3 191829Z 19011KT 23/06 A299 RMK A01 T02320059  RH  033%=      5-min Rain = 0
KHA3 191830Z 19010KT 23/06 A299 RMK A01 T02310059  RH  033%=      5-min Rain = 0
KHA3 191831Z 18011KT 23/06 A299 RMK A01 T02310059  RH  033%=      5-min Rain = 0
KHA3 191832Z 17010KT 23/06 A299 RMK A01 T02310060  RH  033%=      5-min Rain = 0
KHA3 191833Z 17012KT 23/06 A299 RMK A01 T02320060  RH  033%=      5-min Rain = 0
KHA3 191834Z 16011KT 23/06 A299 RMK A01 T02330059  RH  033%=      5-min Rain = 0
KHA3 191835Z 17012KT 23/06 A299 RMK A01 T02320060  RH  033%=      5-min Rain = 0
KHA3 191836Z 17010KT 23/06 A299 RMK A01 T02320058  RH  033%=      5-min Rain = 0
KHA3 191837Z 18009KT 23/06 A299 RMK A01 T02320060  RH  033%=      5-min Rain = 0
KHA3 191838Z 19013KT 24/06 A299 RMK A01 T02350061  RH  033%=      5-min Rain = 0
KHA3 191839Z 19011KT 24/06 A299 RMK A01 T02350060  RH  032%=      5-min Rain = 0
KHA3 191840Z 19011KT 23/06 A299 RMK A01 T02340060  RH  033%=      5-min Rain = 0
KHA3 191841Z 18011KT 23/06 A299 RMK A01 T02330060  RH  033%=      5-min Rain = 0
KHA3 191842Z 17012KT 23/06 A299 RMK A01 T02330060  RH  033%=      5-min Rain = 0
KHA3 191843Z 17011KT 23/06 A299 RMK A01 T02320059  RH  033%=      5-min Rain = 0
KHA3 191844Z 16012KT 23/06 A299 RMK A01 T02330061  RH  033%=      5-min Rain = 0
KHA3 191845Z 18011KT 24/06 A299 RMK A01 T02350061  RH  032%=      5-min Rain = 0
KHA3 191846Z 17010KT 24/06 A299 RMK A01 T02370061  RH  032%=      5-min Rain = 0
KHA3 191847Z 18010KT 24/06 A299 RMK A01 T02380061  RH  032%=      5-min Rain = 0
KHA3 191848Z 19010KT 24/06 A2989 RMK A01 T02380062  RH  032%=      5-min Rain = 0
KHA3 191849Z 18008KT 24/06 A2989 RMK A01 T02370061  RH  032%=      5-min Rain = 0
KHA3 191850Z 16011KT 24/06 A2989 RMK A01 T02380061  RH  032%=      5-min Rain = 0
KHA3 191851Z 17009KT 24/06 A2989 RMK A01 T02370060  RH  032%=      5-min Rain = 0
KHA3 191852Z 16009KT 24/06 A2989 RMK A01 T02380062  RH  032%=      5-min Rain = 0
KHA3 191853Z 17013KT 24/06 A2989 RMK A01 T02400061  RH  032%=      5-min Rain = 0
KHA3 191854Z 17012KT 24/06 A2989 RMK A01 T02400061  RH  031%=      5-min Rain = 0
KHA3 191855Z 18011KT 24/06 A2989 RMK A01 T02390062  RH  032%=      5-min Rain = 0
KHA3 191856Z 18012KT 24/06 A2989 RMK A01 T02380060  RH  032%=      5-min Rain = 0
KHA3 191857Z 18011KT 24/06 A2989 RMK A01 T02360060  RH  032%=      5-min Rain = 0
KHA3 191858Z 17012KT 24/06 A2989 RMK A01 T02360060  RH  032%=      5-min Rain = 0
KHA3 191859Z 17012KT 24/06 A2989 RMK A01 T02360059  RH  032%=      5-min Rain = 0
KHA3 191900Z 18012KT 24/06 A2989 RMK A01 T02370058  RH  032%=      5-min Rain = 0
KHA3 191901Z 18012KT 24/06 A2989 RMK A01 T02360060  RH  032%=      5-min Rain = 0
KHA3 191902Z 16011KT 24/06 A2989 RMK A01 T02350060  RH  032%=      5-min Rain = 0
KHA3 191903Z 17011KT 24/06 A2989 RMK A01 T02360061  RH  032%=      5-min Rain = 0
KHA3 191904Z 16011KT 24/06 A2989 RMK A01 T02380061  RH  032%=      5-min Rain = 0
KHA3 191905Z 17010KT 24/06 A2989 RMK A01 T02380061  RH  032%=      5-min Rain = 0
KHA3 191906Z 16010KT 24/06 A2989 RMK A01 T02390062  RH  032%=      5-min Rain = 0
KHA3 191907Z 18011KT 24/06 A2988 RMK A01 T02390062  RH  032%=      5-min Rain = 0
KHA3 191908Z 18012KT 24/06 A2988 RMK A01 T02410062  RH  032%=      5-min Rain = 0
KHA3 191909Z 17011KT 24/06 A2988 RMK A01 T02420062  RH  031%=      5-min Rain = 0
KHA3 191910Z 16012KT 24/06 A2988 RMK A01 T02420062  RH  031%=      5-min Rain = 0
KHA3 191911Z 17012KT 24/06 A2988 RMK A01 T02430063  RH  031%=      5-min Rain = 0
KHA3 191912Z 17010KT 25/06 A2988 RMK A01 T02450062  RH  031%=      5-min Rain = 0
KHA3 191913Z 18010KT 25/06 A2988 RMK A01 T02450061  RH  031%=      5-min Rain = 0
KHA3 191914Z 17011KT 24/06 A2988 RMK A01 T02440062  RH  031%=      5-min Rain = 0
KHA3 191915Z 16014KT 25/06 A2987 RMK A01 T02450060  RH  031%=      5-min Rain = 0
KHA3 191916Z 16015KT 25/06 A2987 RMK A01 T02480059  RH  030%=      5-min Rain = 0
KHA3 191917Z 18014KT 25/06 A2987 RMK A01 T02480058  RH  030%=      5-min Rain = 0
KHA3 191918Z 18015KT 25/06 A2987 RMK A01 T02480059  RH  030%=      5-min Rain = 0
KHA3 191919Z 18016KT 25/06 A2987 RMK A01 T02500058  RH  029%=      5-min Rain = 0
KHA3 191920Z 18016KT 25/06 A2987 RMK A01 T02490055  RH  029%=      5-min Rain = 0
KHA3 191921Z 18016KT 25/06 A2987 RMK A01 T02490056  RH  029%=      5-min Rain = 0
KHA3 191922Z 18016KT 25/06 A2987 RMK A01 T02480057  RH  029%=      5-min Rain = 0
KHA3 191923Z 18016KT 25/06 A2987 RMK A01 T02470058  RH  029%=      5-min Rain = 0
KHA3 191924Z 19016KT 25/06 A2987 RMK A01 T02470058  RH  030%=      5-min Rain = 0
KHA3 191925Z 18015KT 25/06 A2987 RMK A01 T02470058  RH  030%=      5-min Rain = 0
KHA3 191926Z 18015KT 25/06 A2987 RMK A01 T02460058  RH  030%=      5-min Rain = 0
KHA3 191927Z 18014KT 25/06 A2987 RMK A01 T02460058  RH  030%=      5-min Rain = 0
KHA3 191928Z 18012KT 25/06 A2987 RMK A01 T02460059  RH  030%=      5-min Rain = 0
KHA3 191929Z 19013KT 25/06 A2986 RMK A01 T02460060  RH  030%=      5-min Rain = 0
KHA3 191930Z 17016KT 25/06 A2986 RMK A01 T02490058  RH  029%=      5-min Rain = 0
KHA3 191931Z 16016KT 25/06 A2986 RMK A01 T02490056  RH  029%=      5-min Rain = 0
KHA3 191932Z 17016KT 25/06 A2986 RMK A01 T02490057  RH  029%=      5-min Rain = 0
KHA3 191933Z 17012KT 25/06 A2986 RMK A01 T02490057  RH  029%=      5-min Rain = 0
KHA3 191934Z 16014KT 25/06 A2986 RMK A01 T02480058  RH  029%=      5-min Rain = 0
KHA3 191935Z 18011KT 25/06 A2986 RMK A01 T02480059  RH  030%=      5-min Rain = 0
KHA3 191936Z 18013KT 25/06 A2986 RMK A01 T02520061  RH  029%=      5-min Rain = 0
KHA3 191937Z 17016KT 25/06 A2986 RMK A01 T02530059  RH  029%=      5-min Rain = 0
KHA3 191938Z 17012KT 25/06 A2986 RMK A01 T02500059  RH  029%=      5-min Rain = 0
KHA3 191939Z 17011KT 25/06 A2986 RMK A01 T02490060  RH  030%=      5-min Rain = 0
KHA3 191940Z 17016KT 25/06 A2986 RMK A01 T02480059  RH  030%=      5-min Rain = 0
KHA3 191941Z 17013KT 25/06 A2986 RMK A01 T02480059  RH  030%=      5-min Rain = 0
KHA3 191942Z 16013KT 25/06 A2986 RMK A01 T02490060  RH  030%=      5-min Rain = 0
KHA3 191943Z 17015G20KT 25/06 A2986 RMK A01 T02520059  RH  029%=      5-min Rain = 0
KHA3 191944Z 18017KT 25/06 A2986 RMK A01 T02520058  RH  029%=      5-min Rain = 0
KHA3 191945Z 17013KT 25/06 A2985 RMK A01 T02520058  RH  029%=      5-min Rain = 0
KHA3 191946Z 16014KT 25/06 A2985 RMK A01 T02530060  RH  029%=      5-min Rain = 0
KHA3 191947Z 17014KT 25/06 A2985 RMK A01 T02540059  RH  029%=      5-min Rain = 0
KHA3 191948Z 16012KT 26/06 A2985 RMK A01 T02550060  RH  029%=      5-min Rain = 0
KHA3 191949Z 16012KT 26/06 A2985 RMK A01 T02580061  RH  028%=      5-min Rain = 0
KHA3 191950Z 16015KT 26/06 A2985 RMK A01 T02610061  RH  028%=      5-min Rain = 0
KHA3 191951Z 16015KT 26/06 A2985 RMK A01 T02590058  RH  028%=      5-min Rain = 0
KHA3 191952Z 16013KT 26/06 A2985 RMK A01 T02560059  RH  028%=      5-min Rain = 0
KHA3 191953Z 16012KT 26/06 A2985 RMK A01 T02550060  RH  029%=      5-min Rain = 0
KHA3 191954Z 17014KT 26/06 A2985 RMK A01 T02550058  RH  028%=      5-min Rain = 0
KHA3 191955Z 16014KT 26/06 A2985 RMK A01 T02560058  RH  028%=      5-min Rain = 0
KHA3 191956Z 16011KT 26/06 A2984 RMK A01 T02570059  RH  028%=      5-min Rain = 0
KHA3 191957Z 16016G21KT 26/06 A2984 RMK A01 T02590059  RH  028%=      5-min Rain = 0
KHA3 191958Z 16017KT 26/06 A2984 RMK A01 T02590059  RH  028%=      5-min Rain = 0
KHA3 191959Z 16018KT 26/05 A2984 RMK A01 T02570054  RH  027%=      5-min Rain = 0
KHA3 192000Z 18012KT 26/05 A2984 RMK A01 T02550054  RH  027%=      5-min Rain = 0
KHA3 192001Z 17013KT 26/06 A2984 RMK A01 T02570057  RH  028%=      5-min Rain = 0
KHA3 192002Z 19015KT 26/06 A2984 RMK A01 T02600059  RH  028%=      5-min Rain = 0
KHA3 192003Z 19015KT 26/06 A2984 RMK A01 T02590057  RH  027%=      5-min Rain = 0
KHA3 192004Z 18015KT 26/06 A2984 RMK A01 T02550055  RH  028%=      5-min Rain = 0
KHA3 192005Z 18018KT 25/05 A2984 RMK A01 T02530053  RH  028%=      5-min Rain = 0
KHA3 192006Z 19013KT 25/06 A2984 RMK A01 T02520055  RH  028%=      5-min Rain = 0
KHA3 192007Z 18015KT 25/06 A2984 RMK A01 T02510056  RH  029%=      5-min Rain = 0
KHA3 192008Z 17015KT 25/06 A2984 RMK A01 T02520055  RH  028%=      5-min Rain = 0
KHA3 192009Z 17014KT 25/05 A2984 RMK A01 T02530054  RH  028%=      5-min Rain = 0
KHA3 192010Z 17015KT 25/05 A2984 RMK A01 T02530053  RH  028%=      5-min Rain = 0
KHA3 192011Z 17017KT 26/05 A2984 RMK A01 T02550054  RH  027%=      5-min Rain = 0
KHA3 192012Z 16016KT 26/05 A2984 RMK A01 T02570053  RH  027%=      5-min Rain = 0
KHA3 192013Z 17016KT 26/05 A2984 RMK A01 T02580054  RH  027%=      5-min Rain = 0
KHA3 192014Z 17014KT 26/05 A2984 RMK A01 T02590054  RH  027%=      5-min Rain = 0
KHA3 192015Z 16013KT 26/06 A2983 RMK A01 T02590055  RH  027%=      5-min Rain = 0
KHA3 192016Z 16015G23KT 26/05 A2983 RMK A01 T02590054  RH  027%=      5-min Rain = 0
KHA3 192017Z 17017KT 26/05 A2983 RMK A01 T02590052  RH  027%=      5-min Rain = 0
KHA3 192018Z 17015KT 26/05 A2983 RMK A01 T02590052  RH  026%=      5-min Rain = 0
KHA3 192019Z 16014G19KT 26/05 A2983 RMK A01 T02590053  RH  027%=      5-min Rain = 0
KHA3 192020Z 16012KT 26/05 A2983 RMK A01 T02600054  RH  027%=      5-min Rain = 0
KHA3 192021Z 16013KT 26/06 A2983 RMK A01 T02620055  RH  027%=      5-min Rain = 0
KHA3 192022Z 16017KT 26/06 A2983 RMK A01 T02640055  RH  026%=      5-min Rain = 0
KHA3 192023Z 17015KT 26/05 A2983 RMK A01 T02630053  RH  026%=      5-min Rain = 0
KHA3 192024Z 16015KT 26/05 A2983 RMK A01 T02620053  RH  026%=      5-min Rain = 0
KHA3 192025Z 15013KT 26/05 A2983 RMK A01 T02620053  RH  026%=      5-min Rain = 0
KHA3 192026Z 16018KT 26/05 A2983 RMK A01 T02620054  RH  026%=      5-min Rain = 0
KHA3 192027Z 16017KT 26/06 A2983 RMK A01 T02620055  RH  027%=      5-min Rain = 0
KHA3 192028Z 18014KT 26/06 A2983 RMK A01 T02620055  RH  027%=      5-min Rain = 0
KHA3 192029Z 18014KT 26/05 A2983 RMK A01 T02600054  RH  027%=      5-min Rain = 0
KHA3 192030Z 17017KT 26/05 A2983 RMK A01 T02600054  RH  027%=      5-min Rain = 0
KHA3 192031Z 18015KT 26/06 A2983 RMK A01 T02610055  RH  027%=      5-min Rain = 0
KHA3 192032Z 18017G22KT 26/06 A2983 RMK A01 T02610056  RH  027%=      5-min Rain = 0
KHA3 192033Z 18017KT 26/06 A2983 RMK A01 T02600055  RH  027%=      5-min Rain = 0
KHA3 192034Z 17015KT 26/06 A2983 RMK A01 T02590055  RH  027%=      5-min Rain = 0
KHA3 192035Z 17015KT 26/06 A2983 RMK A01 T02600056  RH  027%=      5-min Rain = 0
KHA3 192036Z 18017KT 26/06 A2983 RMK A01 T02600057  RH  027%=      5-min Rain = 0
KHA3 192037Z 17017KT 26/06 A2983 RMK A01 T02600056  RH  027%=      5-min Rain = 0
KHA3 192038Z 19018KT 26/06 A2983 RMK A01 T02600057  RH  027%=      5-min Rain = 0
KHA3 192039Z 19021KT 26/06 A2983 RMK A01 T02600057  RH  027%=      5-min Rain = 0
KHA3 192040Z 18015KT 26/06 A2983 RMK A01 T02600057  RH  027%=      5-min Rain = 0
KHA3 192041Z 17019KT 26/06 A2983 RMK A01 T02600056  RH  027%=      5-min Rain = 0
KHA3 192042Z 16017KT 26/05 A2983 RMK A01 T02590054  RH  027%=      5-min Rain = 0
KHA3 192043Z 16015KT 26/06 A2983 RMK A01 T02590055  RH  027%=      5-min Rain = 0
KHA3 192044Z 16016KT 26/06 A2983 RMK A01 T02600056  RH  027%=      5-min Rain = 0
KHA3 192045Z 16012KT 26/06 A2983 RMK A01 T02600056  RH  027%=      5-min Rain = 0
KHA3 192046Z 17014KT 26/06 A2983 RMK A01 T02610058  RH  027%=      5-min Rain = 0
KHA3 192047Z 17015G21KT 26/06 A2983 RMK A01 T02620058  RH  027%=      5-min Rain = 0
KHA3 192048Z 17018KT 26/06 A2983 RMK A01 T02620057  RH  027%=      5-min Rain = 0
KHA3 192049Z 17016KT 26/06 A2983 RMK A01 T02610056  RH  027%=      5-min Rain = 0
KHA3 192050Z 17015KT 26/06 A2983 RMK A01 T02600056  RH  027%=      5-min Rain = 0
KHA3 192051Z 19013KT 26/06 A2982 RMK A01 T02610057  RH  027%=      5-min Rain = 0
KHA3 192052Z 18015KT 26/06 A2983 RMK A01 T02620058  RH  027%=      5-min Rain = 0
KHA3 192053Z 19018KT 26/06 A2982 RMK A01 T02630057  RH  027%=      5-min Rain = 0
KHA3 192054Z 19020KT 26/06 A2982 RMK A01 T02600056  RH  027%=      5-min Rain = 0
KHA3 192055Z 18015KT 26/06 A2982 RMK A01 T02570057  RH  028%=      5-min Rain = 0
KHA3 192056Z 18015G20KT 26/06 A2982 RMK A01 T02570058  RH  028%=      5-min Rain = 0
KHA3 192057Z 16018KT 26/06 A2982 RMK A01 T02580059  RH  028%=      5-min Rain = 0
KHA3 192058Z 17016KT 26/06 A2982 RMK A01 T02580059  RH  028%=      5-min Rain = 0
KHA3 192059Z 18014KT 26/06 A2982 RMK A01 T02570059  RH  028%=      5-min Rain = 0
KHA3 192100Z 17014KT 26/06 A2982 RMK A01 T02580060  RH  028%=      5-min Rain = 0
KHA3 192101Z 17018KT 26/06 A2982 RMK A01 T02590061  RH  028%=      5-min Rain = 0
KHA3 192102Z 17017KT 26/06 A2982 RMK A01 T02590061  RH  028%=      5-min Rain = 0
KHA3 192103Z 17015KT 26/06 A2982 RMK A01 T02570061  RH  029%=      5-min Rain = 0
KHA3 192104Z 17015KT 26/06 A2982 RMK A01 T02570062  RH  029%=      5-min Rain = 0
KHA3 192105Z 18014KT 26/06 A2982 RMK A01 T02570062  RH  029%=      5-min Rain = 0
KHA3 192106Z 18019G25KT 26/06 A2982 RMK A01 T02580062  RH  029%=      5-min Rain = 0
KHA3 192107Z 18019G24KT 26/06 A2982 RMK A01 T02570061  RH  028%=      5-min Rain = 0
KHA3 192108Z 19017KT 26/06 A2982 RMK A01 T02560061  RH  029%=      5-min Rain = 0
KHA3 192109Z 19015KT 26/06 A2982 RMK A01 T02550061  RH  029%=      5-min Rain = 0
KHA3 192110Z 17016KT 26/06 A2982 RMK A01 T02550062  RH  029%=      5-min Rain = 0
KHA3 192111Z 17016KT 26/06 A2982 RMK A01 T02550062  RH  029%=      5-min Rain = 0
KHA3 192112Z 18016G21KT 26/06 A2982 RMK A01 T02560063  RH  029%=      5-min Rain = 0
KHA3 192113Z 18018KT 26/06 A2982 RMK A01 T02570063  RH  029%=      5-min Rain = 0
KHA3 192114Z 18017KT 26/06 A2982 RMK A01 T02570062  RH  029%=      5-min Rain = 0
KHA3 192115Z 19016KT 26/06 A2982 RMK A01 T02560062  RH  029%=      5-min Rain = 0
KHA3 192116Z 19014KT 26/06 A2982 RMK A01 T02550062  RH  029%=      5-min Rain = 0
KHA3 192117Z 19014KT 26/06 A2982 RMK A01 T02550063  RH  029%=      5-min Rain = 0
KHA3 192118Z 16014G21KT 26/07 A2982 RMK A01 T02570065  RH  029%=      5-min Rain = 0
KHA3 192119Z 17016KT 26/06 A2982 RMK A01 T02580064  RH  029%=      5-min Rain = 0
KHA3 192120Z 17016KT 26/06 A2981 RMK A01 T02570064  RH  029%=      5-min Rain = 0
KHA3 192121Z 16013KT 26/06 A2982 RMK A01 T02560063  RH  029%=      5-min Rain = 0
KHA3 192122Z 17012KT 26/07 A2982 RMK A01 T02560065  RH  030%=      5-min Rain = 0
KHA3 192123Z 17015KT 26/07 A2982 RMK A01 T02570065  RH  029%=      5-min Rain = 0
KHA3 192124Z 16017KT 26/07 A2981 RMK A01 T02570065  RH  029%=      5-min Rain = 0
KHA3 192125Z 16017KT 26/07 A2981 RMK A01 T02560066  RH  030%=      5-min Rain = 0
KHA3 192126Z 17016KT 26/07 A2981 RMK A01 T02550066  RH  030%=      5-min Rain = 0
KHA3 192127Z 17014KT 25/07 A2981 RMK A01 T02540066  RH  030%=      5-min Rain = 0
KHA3 192128Z 16012KT 25/07 A2981 RMK A01 T02540067  RH  030%=      5-min Rain = 0
KHA3 192129Z 17015KT 26/07 A2981 RMK A01 T02560068  RH  030%=      5-min Rain = 0
KHA3 192130Z 18014KT 26/07 A2981 RMK A01 T02560068  RH  030%=      5-min Rain = 0
KHA3 192131Z 17014KT 26/07 A2981 RMK A01 T02560069  RH  030%=      5-min Rain = 0
KHA3 192132Z 16017KT 26/07 A2981 RMK A01 T02560069  RH  030%=      5-min Rain = 0
KHA3 192133Z 17017KT 26/07 A2981 RMK A01 T02560069  RH  030%=      5-min Rain = 0
KHA3 192134Z 17016KT 26/07 A2981 RMK A01 T02550068  RH  030%=      5-min Rain = 0
KHA3 192135Z 17013KT 25/07 A2981 RMK A01 T02540068  RH  030%=      5-min Rain = 0
KHA3 192136Z 17013KT 25/07 A2981 RMK A01 T02540069  RH  031%=      5-min Rain = 0
KHA3 192137Z 17017KT 25/07 A2981 RMK A01 T02540070  RH  031%=      5-min Rain = 0
KHA3 192138Z 17016KT 26/07 A2981 RMK A01 T02550069  RH  031%=      5-min Rain = 0
KHA3 192139Z 18019KT 25/07 A2981 RMK A01 T02540069  RH  031%=      5-min Rain = 0
KHA3 192140Z 17018KT 25/07 A2981 RMK A01 T02530070  RH  031%=      5-min Rain = 0
KHA3 192141Z 17017G23KT 25/07 A2981 RMK A01 T02520070  RH  031%=      5-min Rain = 0
KHA3 192142Z 16018KT 25/07 A2981 RMK A01 T02520071  RH  031%=      5-min Rain = 0
KHA3 192143Z 16015KT 25/07 A2981 RMK A01 T02520071  RH  032%=      5-min Rain = 0
KHA3 192144Z 17015G20KT 25/07 A2981 RMK A01 T02520072  RH  032%=      5-min Rain = 0
KHA3 192145Z 17015KT 25/07 A2981 RMK A01 T02540073  RH  032%=      5-min Rain = 0
KHA3 192146Z 16015KT 25/07 A2981 RMK A01 T02540072  RH  031%=      5-min Rain = 0
KHA3 192147Z 16016KT 25/07 A2981 RMK A01 T02540071  RH  031%=      5-min Rain = 0
KHA3 192148Z 17015KT 25/07 A2981 RMK A01 T02530071  RH  031%=      5-min Rain = 0
KHA3 192149Z 17018KT 25/07 A2981 RMK A01 T02530071  RH  031%=      5-min Rain = 0
KHA3 192150Z 16019KT 25/07 A2981 RMK A01 T02530071  RH  031%=      5-min Rain = 0
KHA3 192151Z 17019KT 25/07 A2981 RMK A01 T02530071  RH  031%=      5-min Rain = 0
KHA3 192152Z 16016KT 25/07 A2981 RMK A01 T02520071  RH  031%=      5-min Rain = 0
KHA3 192153Z 16015KT 25/07 A2981 RMK A01 T02520072  RH  032%=      5-min Rain = 0
KHA3 192154Z 16014KT 25/07 A2981 RMK A01 T02530072  RH  031%=      5-min Rain = 0
KHA3 192155Z 15012KT 25/07 A2981 RMK A01 T02530072  RH  031%=      5-min Rain = 0
KHA3 192156Z 15015KT 25/07 A2981 RMK A01 T02540072  RH  031%=      5-min Rain = 0
KHA3 192157Z 16015KT 25/07 A2981 RMK A01 T02530071  RH  031%=      5-min Rain = 0
KHA3 192158Z 16014KT 25/07 A2981 RMK A01 T02530071  RH  031%=      5-min Rain = 0
KHA3 192159Z 16014KT 25/07 A2981 RMK A01 T02520072  RH  032%=      5-min Rain = 0
KHA3 192200Z 16016KT 25/07 A298 RMK A01 T02520071  RH  032%=      5-min Rain = 0
KHA3 192201Z 16014KT 25/07 A298 RMK A01 T02520072  RH  032%=      5-min Rain = 0
KHA3 192202Z 16016KT 25/07 A298 RMK A01 T02510071  RH  031%=      5-min Rain = 0
KHA3 192203Z 15016KT 25/07 A298 RMK A01 T02510070  RH  031%=      5-min Rain = 0
KHA3 192204Z 17014KT 25/07 A298 RMK A01 T02510069  RH  031%=      5-min Rain = 0
KHA3 192205Z 16015KT 25/07 A298 RMK A01 T02510069  RH  031%=      5-min Rain = 0
KHA3 192206Z 17014G19KT 25/07 A298 RMK A01 T02510070  RH  031%=      5-min Rain = 0
KHA3 192207Z 16012KT 25/07 A298 RMK A01 T02510070  RH  031%=      5-min Rain = 0
KHA3 192208Z 17011KT 25/07 A298 RMK A01 T02510070  RH  031%=      5-min Rain = 0
KHA3 192209Z 17013G18KT 25/07 A298 RMK A01 T02510070  RH  031%=      5-min Rain = 0
KHA3 192210Z 16013KT 25/07 A298 RMK A01 T02510070  RH  031%=      5-min Rain = 0
KHA3 192211Z 16015KT 25/07 A298 RMK A01 T02510069  RH  031%=      5-min Rain = 0
KHA3 192212Z 16013KT 25/07 A298 RMK A01 T02510068  RH  031%=      5-min Rain = 0
KHA3 192213Z 16011KT 25/07 A298 RMK A01 T02510070  RH  031%=      5-min Rain = 0
KHA3 192214Z 16015KT 25/07 A298 RMK A01 T02500069  RH  031%=      5-min Rain = 0
KHA3 192215Z 16014KT 25/07 A298 RMK A01 T02500068  RH  031%=      5-min Rain = 0
KHA3 192216Z 15014KT 25/07 A298 RMK A01 T02500067  RH  031%=      5-min Rain = 0
KHA3 192217Z 16012KT 25/07 A298 RMK A01 T02500067  RH  031%=      5-min Rain = 0
KHA3 192218Z 16010KT 25/07 A298 RMK A01 T02500067  RH  031%=      5-min Rain = 0
KHA3 192219Z 16012KT 25/07 A298 RMK A01 T02510067  RH  031%=      5-min Rain = 0
KHA3 192220Z 16012KT 25/07 A298 RMK A01 T02510066  RH  031%=      5-min Rain = 0
KHA3 192221Z 15012KT 25/07 A298 RMK A01 T02510066  RH  031%=      5-min Rain = 0
KHA3 192222Z 16013KT 25/07 A298 RMK A01 T02510066  RH  031%=      5-min Rain = 0
KHA3 192223Z 15014KT 25/07 A298 RMK A01 T02510065  RH  031%=      5-min Rain = 0
KHA3 192224Z 15014KT 25/07 A298 RMK A01 T02510065  RH  030%=      5-min Rain = 0
KHA3 192225Z 15013KT 25/07 A298 RMK A01 T02500065  RH  030%=      5-min Rain = 0
KHA3 192226Z 14012KT 25/07 A298 RMK A01 T02500065  RH  031%=      5-min Rain = 0
KHA3 192227Z 15012KT 25/07 A298 RMK A01 T02500065  RH  031%=      5-min Rain = 0
KHA3 192228Z 14012KT 25/07 A298 RMK A01 T02500066  RH  031%=      5-min Rain = 0
KHA3 192229Z 15009KT 25/07 A298 RMK A01 T02490066  RH  031%=      5-min Rain = 0
KHA3 192230Z 14011KT 25/07 A298 RMK A01 T02490067  RH  031%=      5-min Rain = 0
KHA3 192231Z 15012KT 25/07 A298 RMK A01 T02490066  RH  031%=      5-min Rain = 0
KHA3 192232Z 15010KT 25/07 A298 RMK A01 T02490066  RH  031%=      5-min Rain = 0
KHA3 192233Z 15009KT 25/07 A298 RMK A01 T02490066  RH  031%=      5-min Rain = 0
KHA3 192234Z 14011KT 25/07 A298 RMK A01 T02490065  RH  031%=      5-min Rain = 0
KHA3 192235Z 15012KT 25/06 A298 RMK A01 T02480064  RH  031%=      5-min Rain = 0
KHA3 192236Z 15010KT 25/06 A298 RMK A01 T02490064  RH  031%=      5-min Rain = 0
KHA3 192237Z 16012KT 25/06 A298 RMK A01 T02480063  RH  031%=      5-min Rain = 0
KHA3 192238Z 16010KT 25/06 A298 RMK A01 T02480063  RH  030%=      5-min Rain = 0
KHA3 192239Z 15009KT 25/06 A298 RMK A01 T02480063  RH  030%=      5-min Rain = 0
KHA3 192240Z 15012KT 25/06 A298 RMK A01 T02480061  RH  030%=      5-min Rain = 0
KHA3 192241Z 16013KT 25/06 A298 RMK A01 T02470059  RH  030%=      5-min Rain = 0
KHA3 192242Z 15011KT 25/06 A298 RMK A01 T02480059  RH  030%=      5-min Rain = 0
KHA3 192243Z 15012KT 25/06 A298 RMK A01 T02480059  RH  030%=      5-min Rain = 0
KHA3 192244Z 15012KT 25/06 A298 RMK A01 T02470058  RH  030%=      5-min Rain = 0
KHA3 192245Z 15011KT 25/06 A298 RMK A01 T02470058  RH  030%=      5-min Rain = 0
KHA3 192246Z 15012KT 25/06 A298 RMK A01 T02460057  RH  030%=      5-min Rain = 0
KHA3 192247Z 15011KT 25/06 A298 RMK A01 T02460057  RH  029%=      5-min Rain = 0
KHA3 192248Z 15009KT 25/06 A298 RMK A01 T02460057  RH  030%=      5-min Rain = 0
KHA3 192249Z 15008KT 25/06 A298 RMK A01 T02450057  RH  030%=      5-min Rain = 0
KHA3 192250Z 15010KT 24/06 A298 RMK A01 T02440057  RH  030%=      5-min Rain = 0
KHA3 192251Z 15010KT 24/06 A298 RMK A01 T02440056  RH  030%=      5-min Rain = 0
KHA3 192252Z 14008KT 24/06 A298 RMK A01 T02440056  RH  030%=      5-min Rain = 0
KHA3 192253Z 14010KT 24/06 A298 RMK A01 T02440057  RH  030%=      5-min Rain = 0
KHA3 192254Z 14010KT 24/06 A298 RMK A01 T02430056  RH  030%=      5-min Rain = 0
KHA3 192255Z 14008KT 24/06 A298 RMK A01 T02430057  RH  030%=      5-min Rain = 0
KHA3 192256Z 15008KT 24/06 A298 RMK A01 T02430056  RH  030%=      5-min Rain = 0
KHA3 192257Z 15010KT 24/06 A298 RMK A01 T02420056  RH  030%=      5-min Rain = 0
KHA3 192258Z 14009KT 24/06 A298 RMK A01 T02410055  RH  030%=      5-min Rain = 0
KHA3 192259Z 15010KT 24/06 A298 RMK A01 T02410055  RH  030%=      5-min Rain = 0
KHA3 192300Z 15008KT 24/05 A298 RMK A01 T02410054  RH  030%=      5-min Rain = 0
KHA3 192301Z 15008KT 24/06 A298 RMK A01 T02400055  RH  030%=      5-min Rain = 0
KHA3 192302Z 15008KT 24/05 A298 RMK A01 T02380054  RH  030%=      5-min Rain = 0
KHA3 192303Z 14010KT 24/05 A298 RMK A01 T02360053  RH  030%=      5-min Rain = 0
KHA3 192304Z 14010KT 24/05 A298 RMK A01 T02360050  RH  030%=      5-min Rain = 0
KHA3 192305Z 15009KT 24/05 A298 RMK A01 T02360051  RH  030%=      5-min Rain = 0
KHA3 192306Z 14010G15KT 23/05 A298 RMK A01 T02340049  RH  030%=      5-min Rain = 0
KHA3 192307Z 15011KT 23/05 A298 RMK A01 T02330047  RH  030%=      5-min Rain = 0
KHA3 192308Z 15012KT 23/05 A298 RMK A01 T02340046  RH  030%=      5-min Rain = 0
KHA3 192309Z 15013KT 23/04 A298 RMK A01 T02330044  RH  029%=      5-min Rain = 0
KHA3 192310Z 15012KT 23/04 A298 RMK A01 T02330043  RH  029%=      5-min Rain = 0
KHA3 192311Z 15011KT 23/04 A298 RMK A01 T02330043  RH  029%=      5-min Rain = 0
KHA3 192312Z 15010KT 23/04 A298 RMK A01 T02320042  RH  029%=      5-min Rain = 0
KHA3 192313Z 16010KT 23/04 A298 RMK A01 T02310042  RH  029%=      5-min Rain = 0
KHA3 192314Z 15011KT 23/04 A298 RMK A01 T02300041  RH  029%=      5-min Rain = 0
KHA3 192315Z 15011KT 23/04 A298 RMK A01 T02300041  RH  029%=      5-min Rain = 0
KHA3 192316Z 16010KT 23/04 A298 RMK A01 T02290040  RH  029%=      5-min Rain = 0
KHA3 192317Z 15010KT 23/04 A298 RMK A01 T02280040  RH  029%=      5-min Rain = 0
KHA3 192318Z 16011KT 23/04 A298 RMK A01 T02270040  RH  029%=      5-min Rain = 0
KHA3 192319Z 16010KT 23/04 A298 RMK A01 T02270039  RH  029%=      5-min Rain = 0
KHA3 192320Z 16011KT 23/04 A298 RMK A01 T02260039  RH  029%=      5-min Rain = 0
KHA3 192321Z 16012KT 23/04 A298 RMK A01 T02260038  RH  029%=      5-min Rain = 0
KHA3 192322Z 16011KT 23/04 A298 RMK A01 T02270038  RH  029%=      5-min Rain = 0
KHA3 192323Z 16011KT 23/04 A298 RMK A01 T02270038  RH  029%=      5-min Rain = 0
KHA3 192324Z 15009KT 23/04 A298 RMK A01 T02270038  RH  029%=      5-min Rain = 0
KHA3 192325Z 16010KT 23/04 A298 RMK A01 T02250038  RH  029%=      5-min Rain = 0
KHA3 192326Z 15010KT 22/04 A298 RMK A01 T02240037  RH  029%=      5-min Rain = 0
KHA3 192327Z 15009KT 22/04 A298 RMK A01 T02230038  RH  030%=      5-min Rain = 0
KHA3 192328Z 16010KT 22/04 A298 RMK A01 T02220038  RH  030%=      5-min Rain = 0
KHA3 192329Z 15009KT 22/04 A298 RMK A01 T02210038  RH  030%=      5-min Rain = 0
KHA3 192330Z 16010KT 22/04 A298 RMK A01 T02200038  RH  030%=      5-min Rain = 0
KHA3 192331Z 15010KT 22/04 A298 RMK A01 T02190038  RH  030%=      5-min Rain = 0
KHA3 192332Z 15010KT 22/04 A298 RMK A01 T02190037  RH  030%=      5-min Rain = 0
KHA3 192333Z 15010KT 22/04 A298 RMK A01 T02190038  RH  030%=      5-min Rain = 0
KHA3 192334Z 15010KT 22/04 A298 RMK A01 T02180037  RH  031%=      5-min Rain = 0
KHA3 192335Z 15010KT 22/04 A298 RMK A01 T02170037  RH  031%=      5-min Rain = 0
KHA3 192336Z 15009KT 22/04 A298 RMK A01 T02160037  RH  031%=      5-min Rain = 0
KHA3 192337Z 15010KT 22/04 A298 RMK A01 T02150037  RH  031%=      5-min Rain = 0
KHA3 192338Z 15010KT 21/04 A298 RMK A01 T02140037  RH  031%=      5-min Rain = 0
KHA3 192339Z 15011KT 21/04 A298 RMK A01 T02140037  RH  031%=      5-min Rain = 0
KHA3 192340Z 15011KT 21/04 A298 RMK A01 T02140037  RH  031%=      5-min Rain = 0
KHA3 192341Z 15010KT 21/04 A298 RMK A01 T02140037  RH  031%=      5-min Rain = 0
KHA3 192342Z 15010KT 21/04 A298 RMK A01 T02130037  RH  031%=      5-min Rain = 0
KHA3 192343Z 15011KT 21/04 A298 RMK A01 T02130037  RH  031%=      5-min Rain = 0
KHA3 192344Z 15010KT 21/04 A298 RMK A01 T02120037  RH  032%=      5-min Rain = 0
KHA3 192345Z 15010KT 21/04 A298 RMK A01 T02110036  RH  032%=      5-min Rain = 0
KHA3 192346Z 15011KT 21/04 A298 RMK A01 T02110037  RH  032%=      5-min Rain = 0
KHA3 192347Z 15011KT 21/04 A298 RMK A01 T02110037  RH  032%=      5-min Rain = 0
KHA3 192348Z 15010KT 21/04 A298 RMK A01 T02110036  RH  032%=      5-min Rain = 0
KHA3 192349Z 15010KT 21/04 A298 RMK A01 T02100036  RH  032%=      5-min Rain = 0
KHA3 192350Z 15011KT 21/04 A298 RMK A01 T02090037  RH  032%=      5-min Rain = 0
KHA3 192351Z 15011KT 21/04 A298 RMK A01 T02080036  RH  032%=      5-min Rain = 0
KHA3 192352Z 15011KT 21/04 A298 RMK A01 T02080036  RH  032%=      5-min Rain = 0
KHA3 192353Z 15011KT 21/04 A298 RMK A01 T02080036  RH  032%=      5-min Rain = 0
KHA3 192354Z 15010KT 21/04 A298 RMK A01 T02080037  RH  032%=      5-min Rain = 0
KHA3 192355Z 15010KT 21/04 A298 RMK A01 T02070037  RH  032%=      5-min Rain = 0
KHA3 192356Z 15010KT 21/04 A298 RMK A01 T02070037  RH  033%=      5-min Rain = 0
KHA3 192357Z 15010KT 21/04 A298 RMK A01 T02060037  RH  033%=      5-min Rain = 0
KHA3 192358Z 15010KT 21/04 A298 RMK A01 T02050037  RH  033%=      5-min Rain = 0
KHA3 192359Z 15009KT 20/04 A298 RMK A01 T02040037  RH  033%=      5-min Rain = 0
KHA3 200000Z 15010KT 20/04 A298 RMK A01 T02040037  RH  033%=      5-min Rain = 0
KHA3 200001Z 15010KT 20/04 A298 RMK A01 T02030037  RH  033%=      5-min Rain = 0
KHA3 200002Z 15010KT 20/04 A298 RMK A01 T02030037  RH  034%=      5-min Rain = 0
KHA3 200003Z 15011KT 20/04 A298 RMK A01 T02030037  RH  034%=      5-min Rain = 0
KHA3 200004Z 15011KT 20/04 A298 RMK A01 T02030038  RH  034%=      5-min Rain = 0
KHA3 200005Z 15011KT 20/04 A298 RMK A01 T02030038  RH  034%=      5-min Rain = 0
KHA3 200006Z 15012KT 20/04 A298 RMK A01 T02040038  RH  033%=      5-min Rain = 0
KHA3 200007Z 15012KT 21/04 A298 RMK A01 T02060038  RH  033%=      5-min Rain = 0
KHA3 200008Z 15011KT 21/04 A298 RMK A01 T02060038  RH  033%=      5-min Rain = 0
KHA3 200009Z 15011KT 21/04 A298 RMK A01 T02060038  RH  033%=      5-min Rain = 0
KHA3 200010Z 15011KT 21/04 A298 RMK A01 T02050038  RH  033%=      5-min Rain = 0
KHA3 200011Z 15012KT 20/04 A298 RMK A01 T02040038  RH  034%=      5-min Rain = 0
KHA3 200012Z 15012KT 20/04 A298 RMK A01 T02040038  RH  034%=      5-min Rain = 0
KHA3 200013Z 15011KT 20/04 A298 RMK A01 T02040038  RH  033%=      5-min Rain = 0
KHA3 200014Z 15011KT 21/04 A298 RMK A01 T02050038  RH  033%=      5-min Rain = 0
KHA3 200015Z 15011KT 20/04 A298 RMK A01 T02040038  RH  033%=      5-min Rain = 0
KHA3 200016Z 15012KT 20/04 A298 RMK A01 T02040038  RH  033%=      5-min Rain = 0
KHA3 200017Z 15012KT 21/04 A298 RMK A01 T02050038  RH  033%=      5-min Rain = 0
KHA3 200018Z 15011KT 21/04 A298 RMK A01 T02050038  RH  033%=      5-min Rain = 0
KHA3 200019Z 15012KT 21/04 A298 RMK A01 T02050038  RH  033%=      5-min Rain = 0
KHA3 200020Z 15012KT 21/04 A298 RMK A01 T02050038  RH  033%=      5-min Rain = 0
KHA3 200021Z 15012KT 21/04 A298 RMK A01 T02050037  RH  033%=      5-min Rain = 0
KHA3 200022Z 15012KT 21/04 A298 RMK A01 T02050037  RH  033%=      5-min Rain = 0
KHA3 200023Z 16012KT 21/04 A298 RMK A01 T02050037  RH  033%=      5-min Rain = 0
KHA3 200024Z 15013KT 20/04 A298 RMK A01 T02040037  RH  033%=      5-min Rain = 0
KHA3 200025Z 15012KT 21/04 A298 RMK A01 T02050037  RH  033%=      5-min Rain = 0
KHA3 200026Z 16013KT 21/04 A298 RMK A01 T02050037  RH  033%=      5-min Rain = 0
KHA3 200027Z 15013KT 21/04 A298 RMK A01 T02060036  RH  033%=      5-min Rain = 0
KHA3 200028Z 15012KT 21/04 A298 RMK A01 T02060037  RH  033%=      5-min Rain = 0
KHA3 200029Z 15013KT 21/04 A298 RMK A01 T02050037  RH  033%=      5-min Rain = 0
KHA3 200030Z 15012KT 21/04 A298 RMK A01 T02050037  RH  033%=      5-min Rain = 0
KHA3 200031Z 15013KT 21/04 A298 RMK A01 T02050036  RH  033%=      5-min Rain = 0
KHA3 200032Z 15013KT 21/04 A298 RMK A01 T02050036  RH  033%=      5-min Rain = 0
KHA3 200033Z 15014KT 21/04 A298 RMK A01 T02050036  RH  033%=      5-min Rain = 0
KHA3 200034Z 15014KT 21/04 A298 RMK A01 T02060037  RH  033%=      5-min Rain = 0
KHA3 200035Z 16013KT 21/04 A298 RMK A01 T02070037  RH  033%=      5-min Rain = 0
KHA3 200036Z 15012KT 21/04 A298 RMK A01 T02060037  RH  033%=      5-min Rain = 0
KHA3 200037Z 16012KT 21/04 A298 RMK A01 T02060037  RH  033%=      5-min Rain = 0
KHA3 200038Z 15012KT 21/04 A298 RMK A01 T02050038  RH  033%=      5-min Rain = 0
KHA3 200039Z 16013KT 21/04 A298 RMK A01 T02050038  RH  033%=      5-min Rain = 0
KHA3 200040Z 16012KT 20/04 A298 RMK A01 T02040038  RH  033%=      5-min Rain = 0
KHA3 200041Z 16013KT 21/04 A298 RMK A01 T02050039  RH  033%=      5-min Rain = 0
KHA3 200042Z 16014KT 21/04 A298 RMK A01 T02050039  RH  033%=      5-min Rain = 0
KHA3 200043Z 16014KT 21/04 A298 RMK A01 T02060039  RH  033%=      5-min Rain = 0
KHA3 200044Z 16014KT 21/04 A298 RMK A01 T02060040  RH  033%=      5-min Rain = 0
KHA3 200045Z 16013KT 21/04 A298 RMK A01 T02060040  RH  034%=      5-min Rain = 0
KHA3 200046Z 16013KT 21/04 A298 RMK A01 T02050040  RH  034%=      5-min Rain = 0
KHA3 200047Z 16013KT 20/04 A298 RMK A01 T02040040  RH  034%=      5-min Rain = 0
KHA3 200048Z 16014KT 20/04 A298 RMK A01 T02040041  RH  034%=      5-min Rain = 0
KHA3 200049Z 16014G19KT 20/04 A298 RMK A01 T02040041  RH  034%=      5-min Rain = 0
KHA3 200050Z 16013KT 20/04 A298 RMK A01 T02040041  RH  034%=      5-min Rain = 0
KHA3 200051Z 16014KT 20/04 A298 RMK A01 T02040041  RH  034%=      5-min Rain = 0
KHA3 200052Z 16014KT 20/04 A298 RMK A01 T02030041  RH  034%=      5-min Rain = 0
KHA3 200053Z 16013KT 20/04 A298 RMK A01 T02030041  RH  034%=      5-min Rain = 0
KHA3 200054Z 15014KT 20/04 A298 RMK A01 T02020041  RH  035%=      5-min Rain = 0
KHA3 200055Z 16014KT 20/04 A298 RMK A01 T02020042  RH  035%=      5-min Rain = 0
KHA3 200056Z 16013KT 20/04 A298 RMK A01 T02020042  RH  035%=      5-min Rain = 0
KHA3 200057Z 16014KT 20/04 A298 RMK A01 T02010042  RH  035%=      5-min Rain = 0
KHA3 200058Z 16013KT 20/04 A298 RMK A01 T02010042  RH  035%=      5-min Rain = 0
KHA3 200059Z 16013KT 20/04 A298 RMK A01 T02010043  RH  035%=      5-min Rain = 0
KHA3 200100Z 16014KT 20/04 A298 RMK A01 T02010044  RH  035%=      5-min Rain = 0
KHA3 200101Z 16014KT 20/04 A298 RMK A01 T02000043  RH  036%=      5-min Rain = 0
KHA3 200102Z 16013KT 20/04 A298 RMK A01 T02000044  RH  036%=      5-min Rain = 0
KHA3 200103Z 16013KT 20/04 A298 RMK A01 T01990044  RH  036%=      5-min Rain = 0
KHA3 200104Z 16014KT 20/04 A298 RMK A01 T01990044  RH  036%=      5-min Rain = 0
KHA3 200105Z 16012KT 20/04 A298 RMK A01 T01980044  RH  036%=      5-min Rain = 0
KHA3 200106Z 16013KT 20/05 A298 RMK A01 T01980045  RH  037%=      5-min Rain = 0
KHA3 200107Z 16013KT 20/05 A298 RMK A01 T01980045  RH  037%=      5-min Rain = 0
KHA3 200108Z 16013KT 20/05 A298 RMK A01 T01970046  RH  037%=      5-min Rain = 0
KHA3 200109Z 16014KT 20/05 A298 RMK A01 T01970046  RH  037%=      5-min Rain = 0
KHA3 200110Z 16014KT 20/05 A298 RMK A01 T01970046  RH  037%=      5-min Rain = 0
KHA3 200111Z 16013KT 20/05 A298 RMK A01 T01970046  RH  037%=      5-min Rain = 0
KHA3 200112Z 16014KT 20/05 A298 RMK A01 T01970047  RH  037%=      5-min Rain = 0
KHA3 200113Z 16013KT 20/05 A298 RMK A01 T01960047  RH  037%=      5-min Rain = 0
KHA3 200114Z 16014KT 20/05 A298 RMK A01 T01960048  RH  038%=      5-min Rain = 0
KHA3 200115Z 16013KT 20/05 A298 RMK A01 T01960048  RH  038%=      5-min Rain = 0
KHA3 200116Z 16014KT 20/05 A298 RMK A01 T01970048  RH  038%=      5-min Rain = 0
KHA3 200117Z 16014KT 20/05 A298 RMK A01 T01970049  RH  038%=      5-min Rain = 0
KHA3 200118Z 16013G19KT 20/05 A298 RMK A01 T01970049  RH  038%=      5-min Rain = 0
KHA3 200119Z 16013KT 20/05 A298 RMK A01 T01970050  RH  038%=      5-min Rain = 0
KHA3 200120Z 16013KT 20/05 A298 RMK A01 T01970050  RH  038%=      5-min Rain = 0
KHA3 200121Z 16013KT 20/05 A298 RMK A01 T01960050  RH  038%=      5-min Rain = 0
KHA3 200122Z 16013KT 20/05 A298 RMK A01 T01960051  RH  038%=      5-min Rain = 0
KHA3 200123Z 16014KT 20/05 A298 RMK A01 T01950050  RH  039%=      5-min Rain = 0
KHA3 200124Z 16013KT 20/05 A298 RMK A01 T01950051  RH  039%=      5-min Rain = 0
KHA3 200125Z 16012KT 20/05 A298 RMK A01 T01950051  RH  039%=      5-min Rain = 0
KHA3 200126Z 16013KT 20/05 A2979 RMK A01 T01950051  RH  039%=      5-min Rain = 0
KHA3 200127Z 16014KT 19/05 A2979 RMK A01 T01940051  RH  039%=      5-min Rain = 0
KHA3 200128Z 16013KT 19/05 A2979 RMK A01 T01940051  RH  039%=      5-min Rain = 0
KHA3 200129Z 16012KT 19/05 A2979 RMK A01 T01940051  RH  039%=      5-min Rain = 0
KHA3 200130Z 16012KT 19/05 A2979 RMK A01 T01940052  RH  039%=      5-min Rain = 0
KHA3 200131Z 16013KT 19/05 A2979 RMK A01 T01930052  RH  040%=      5-min Rain = 0
KHA3 200132Z 16013KT 19/05 A2979 RMK A01 T01920052  RH  040%=      5-min Rain = 0
KHA3 200133Z 16013KT 19/05 A2979 RMK A01 T01920052  RH  040%=      5-min Rain = 0
KHA3 200134Z 16013KT 19/05 A2979 RMK A01 T01920052  RH  040%=      5-min Rain = 0
KHA3 200135Z 16014KT 19/05 A2979 RMK A01 T01910053  RH  040%=      5-min Rain = 0
KHA3 200136Z 16012G17KT 19/05 A2979 RMK A01 T01920053  RH  040%=      5-min Rain = 0
KHA3 200137Z 16014KT 19/05 A2979 RMK A01 T01920053  RH  040%=      5-min Rain = 0
KHA3 200138Z 16014KT 19/05 A2979 RMK A01 T01910053  RH  040%=      5-min Rain = 0
KHA3 200139Z 16013KT 19/05 A2979 RMK A01 T01910054  RH  041%=      5-min Rain = 0
KHA3 200140Z 16014KT 19/05 A2979 RMK A01 T01910054  RH  041%=      5-min Rain = 0
KHA3 200141Z 16014KT 19/05 A2979 RMK A01 T01910054  RH  041%=      5-min Rain = 0
KHA3 200142Z 16013KT 19/05 A2979 RMK A01 T01900054  RH  041%=      5-min Rain = 0
KHA3 200143Z 16013KT 19/05 A2979 RMK A01 T01900054  RH  041%=      5-min Rain = 0
KHA3 200144Z 16011KT 19/06 A2979 RMK A01 T01900055  RH  041%=      5-min Rain = 0
KHA3 200145Z 16012KT 19/05 A2979 RMK A01 T01890054  RH  041%=      5-min Rain = 0
KHA3 200146Z 16014KT 19/05 A2979 RMK A01 T01880054  RH  041%=      5-min Rain = 0
KHA3 200147Z 16014KT 19/05 A2979 RMK A01 T01880054  RH  041%=      5-min Rain = 0
KHA3 200148Z 16014KT 19/05 A2979 RMK A01 T01880054  RH  041%=      5-min Rain = 0
KHA3 200149Z 16014KT 19/06 A2979 RMK A01 T01880055  RH  041%=      5-min Rain = 0
KHA3 200150Z 16015KT 19/06 A2979 RMK A01 T01880055  RH  042%=      5-min Rain = 0
KHA3 200151Z 16013G20KT 19/06 A2979 RMK A01 T01880055  RH  042%=      5-min Rain = 0
KHA3 200152Z 16014KT 19/06 A2979 RMK A01 T01890055  RH  042%=      5-min Rain = 0
KHA3 200153Z 16014KT 19/06 A2979 RMK A01 T01890055  RH  041%=      5-min Rain = 0
KHA3 200154Z 16014KT 19/06 A2979 RMK A01 T01890056  RH  042%=      5-min Rain = 0
KHA3 200155Z 16014KT 19/06 A2979 RMK A01 T01890055  RH  041%=      5-min Rain = 0
KHA3 200156Z 16014KT 19/06 A2979 RMK A01 T01890055  RH  041%=      5-min Rain = 0
KHA3 200157Z 16014KT 19/06 A2979 RMK A01 T01900055  RH  041%=      5-min Rain = 0
KHA3 200158Z 16013KT 19/06 A2979 RMK A01 T01900056  RH  041%=      5-min Rain = 0
KHA3 200159Z 16014KT 19/06 A2979 RMK A01 T01900056  RH  041%=      5-min Rain = 0
KHA3 200200Z 16014KT 19/06 A2979 RMK A01 T01910056  RH  041%=      5-min Rain = 0
KHA3 200201Z 16015KT 19/06 A2979 RMK A01 T01910056  RH  041%=      5-min Rain = 0
KHA3 200202Z 15014KT 19/06 A2979 RMK A01 T01920056  RH  041%=      5-min Rain = 0
KHA3 200203Z 16015KT 19/06 A2979 RMK A01 T01920056  RH  041%=      5-min Rain = 0
KHA3 200204Z 16014KT 19/06 A2979 RMK A01 T01920056  RH  041%=      5-min Rain = 0
KHA3 200205Z 16015KT 19/06 A2979 RMK A01 T01920056  RH  041%=      5-min Rain = 0
KHA3 200206Z 16015KT 19/06 A2979 RMK A01 T01920056  RH  041%=      5-min Rain = 0
KHA3 200207Z 15015KT 19/06 A2979 RMK A01 T01920056  RH  041%=      5-min Rain = 0
KHA3 200208Z 16015KT 19/06 A2979 RMK A01 T01920056  RH  041%=      5-min Rain = 0
KHA3 200209Z 16015KT 19/06 A2979 RMK A01 T01930056  RH  041%=      5-min Rain = 0
KHA3 200210Z 16015G20KT 19/06 A2979 RMK A01 T01930056  RH  041%=      5-min Rain = 0
KHA3 200211Z 16015KT 19/06 A2979 RMK A01 T01920056  RH  041%=      5-min Rain = 0
KHA3 200212Z 16017KT 19/06 A2979 RMK A01 T01920056  RH  041%=      5-min Rain = 0
KHA3 200213Z 16015KT 19/06 A2979 RMK A01 T01920057  RH  041%=      5-min Rain = 0
KHA3 200214Z 16014KT 19/06 A2979 RMK A01 T01920056  RH  041%=      5-min Rain = 0
KHA3 200215Z 16015KT 19/06 A2979 RMK A01 T01920056  RH  041%=      5-min Rain = 0
KHA3 200216Z 16016KT 19/06 A2979 RMK A01 T01910056  RH  041%=      5-min Rain = 0
KHA3 200217Z 16017KT 19/06 A2979 RMK A01 T01910056  RH  041%=      5-min Rain = 0
KHA3 200218Z 16015KT 19/06 A2979 RMK A01 T01920056  RH  041%=      5-min Rain = 0
KHA3 200219Z 16015KT 19/06 A298 RMK A01 T01920056  RH  041%=      5-min Rain = 0
KHA3 200220Z 16016KT 19/06 A298 RMK A01 T01920056  RH  041%=      5-min Rain = 0
KHA3 200221Z 16014KT 19/06 A298 RMK A01 T01910056  RH  041%=      5-min Rain = 0
KHA3 200222Z 16015KT 19/06 A298 RMK A01 T01910056  RH  041%=      5-min Rain = 0
KHA3 200223Z 16014KT 19/06 A298 RMK A01 T01900056  RH  041%=      5-min Rain = 0
KHA3 200224Z 16014KT 19/06 A298 RMK A01 T01890056  RH  042%=      5-min Rain = 0
KHA3 200225Z 16015KT 19/06 A298 RMK A01 T01890056  RH  042%=      5-min Rain = 0
KHA3 200226Z 16014KT 19/06 A298 RMK A01 T01890056  RH  042%=      5-min Rain = 0
KHA3 200227Z 16015KT 19/06 A298 RMK A01 T01890057  RH  042%=      5-min Rain = 0
KHA3 200228Z 16015KT 19/06 A298 RMK A01 T01890056  RH  042%=      5-min Rain = 0
KHA3 200229Z 16015KT 19/06 A298 RMK A01 T01890056  RH  042%=      5-min Rain = 0
KHA3 200230Z 16015KT 19/06 A2979 RMK A01 T01890057  RH  042%=      5-min Rain = 0
KHA3 200231Z 16015KT 19/06 A2979 RMK A01 T01890057  RH  042%=      5-min Rain = 0
KHA3 200232Z 15015KT 19/06 A298 RMK A01 T01890057  RH  042%=      5-min Rain = 0
KHA3 200233Z 16015KT 19/06 A298 RMK A01 T01890057  RH  042%=      5-min Rain = 0
KHA3 200234Z 16015KT 19/06 A298 RMK A01 T01890057  RH  042%=      5-min Rain = 0
KHA3 200235Z 16014KT 19/06 A298 RMK A01 T01890057  RH  042%=      5-min Rain = 0
KHA3 200236Z 16016KT 19/06 A298 RMK A01 T01890057  RH  042%=      5-min Rain = 0
KHA3 200237Z 15015KT 19/06 A298 RMK A01 T01880057  RH  042%=      5-min Rain = 0
KHA3 200238Z 16016KT 19/06 A298 RMK A01 T01880057  RH  042%=      5-min Rain = 0
KHA3 200239Z 16016KT 19/06 A298 RMK A01 T01880056  RH  042%=      5-min Rain = 0
KHA3 200240Z 15015KT 19/06 A298 RMK A01 T01890057  RH  042%=      5-min Rain = 0
KHA3 200241Z 15015KT 19/06 A298 RMK A01 T01890057  RH  042%=      5-min Rain = 0
KHA3 200242Z 16014KT 19/06 A298 RMK A01 T01890057  RH  042%=      5-min Rain = 0
KHA3 200243Z 15015KT 19/06 A2979 RMK A01 T01880057  RH  042%=      5-min Rain = 0
KHA3 200244Z 16016KT 19/06 A2979 RMK A01 T01880057  RH  042%=      5-min Rain = 0
KHA3 200245Z 15015KT 19/06 A2979 RMK A01 T01880057  RH  042%=      5-min Rain = 0
KHA3 200246Z 16013KT 19/06 A2979 RMK A01 T01880057  RH  042%=      5-min Rain = 0
KHA3 200247Z 16015KT 19/06 A2979 RMK A01 T01870057  RH  042%=      5-min Rain = 0
KHA3 200248Z 16015KT 19/06 A2979 RMK A01 T01870057  RH  043%=      5-min Rain = 0
KHA3 200249Z 16016KT 19/06 A298 RMK A01 T01860057  RH  043%=      5-min Rain = 0
KHA3 200250Z 15015KT 19/06 A298 RMK A01 T01860056  RH  042%=      5-min Rain = 0
KHA3 200251Z 15015KT 19/06 A298 RMK A01 T01870057  RH  043%=      5-min Rain = 0
KHA3 200252Z 16014KT 19/06 A298 RMK A01 T01860056  RH  042%=      5-min Rain = 0
KHA3 200253Z 15015KT 19/06 A298 RMK A01 T01870057  RH  042%=      5-min Rain = 0
KHA3 200254Z 16015KT 19/06 A298 RMK A01 T01860057  RH  043%=      5-min Rain = 0
KHA3 200255Z 16014KT 19/06 A298 RMK A01 T01860057  RH  043%=      5-min Rain = 0
KHA3 200256Z 16014KT 19/06 A298 RMK A01 T01860057  RH  043%=      5-min Rain = 0
KHA3 200257Z 16015KT 19/06 A298 RMK A01 T01850057  RH  043%=      5-min Rain = 0
KHA3 200258Z 16014KT 19/06 A298 RMK A01 T01850057  RH  043%=      5-min Rain = 0
KHA3 200259Z 16015KT 19/06 A298 RMK A01 T01850056  RH  043%=      5-min Rain = 0
KHA3 200300Z 16014G20KT 19/06 A298 RMK A01 T01850056  RH  043%=      5-min Rain = 0
KHA3 200301Z 16014KT 19/06 A298 RMK A01 T01860057  RH  043%=      5-min Rain = 0
KHA3 200302Z 16013KT 19/06 A298 RMK A01 T01850057  RH  043%=      5-min Rain = 0
KHA3 200303Z 16013KT 18/06 A298 RMK A01 T01840056  RH  043%=      5-min Rain = 0
KHA3 200304Z 16012KT 18/06 A298 RMK A01 T01840057  RH  043%=      5-min Rain = 0
KHA3 200305Z 16013KT 18/06 A298 RMK A01 T01830056  RH  043%=      5-min Rain = 0
KHA3 200306Z 16014KT 18/06 A298 RMK A01 T01830056  RH  043%=      5-min Rain = 0
KHA3 200307Z 16013KT 18/06 A298 RMK A01 T01840056  RH  043%=      5-min Rain = 0
KHA3 200308Z 16014KT 18/06 A298 RMK A01 T01830057  RH  043%=      5-min Rain = 0
KHA3 200309Z 15012KT 18/06 A298 RMK A01 T01830057  RH  044%=      5-min Rain = 0
KHA3 200310Z 16013KT 18/06 A298 RMK A01 T01820057  RH  044%=      5-min Rain = 0
KHA3 200311Z 15013KT 18/06 A298 RMK A01 T01820056  RH  044%=      5-min Rain = 0
KHA3 200312Z 15013KT 18/06 A298 RMK A01 T01810057  RH  044%=      5-min Rain = 0
KHA3 200313Z 16015KT 18/06 A298 RMK A01 T01810056  RH  044%=      5-min Rain = 0
KHA3 200314Z 15013KT 18/06 A298 RMK A01 T01820057  RH  044%=      5-min Rain = 0
KHA3 200315Z 15014KT 18/06 A298 RMK A01 T01820057  RH  044%=      5-min Rain = 0
KHA3 200316Z 15012KT 18/06 A298 RMK A01 T01820057  RH  044%=      5-min Rain = 0
KHA3 200317Z 16011KT 18/06 A298 RMK A01 T01810057  RH  044%=      5-min Rain = 0
KHA3 200318Z 16012KT 18/06 A298 RMK A01 T01800056  RH  044%=      5-min Rain = 0
KHA3 200319Z 16011KT 18/06 A298 RMK A01 T01800057  RH  044%=      5-min Rain = 0
KHA3 200320Z 16013KT 18/06 A298 RMK A01 T01790056  RH  045%=      5-min Rain = 0
KHA3 200321Z 16013KT 18/06 A298 RMK A01 T01790056  RH  045%=      5-min Rain = 0
KHA3 200322Z 16013KT 18/06 A298 RMK A01 T01790057  RH  045%=      5-min Rain = 0
KHA3 200323Z 15013KT 18/06 A298 RMK A01 T01790057  RH  045%=      5-min Rain = 0
KHA3 200324Z 16012KT 18/06 A298 RMK A01 T01780057  RH  045%=      5-min Rain = 0
KHA3 200325Z 15014KT 18/06 A298 RMK A01 T01780057  RH  045%=      5-min Rain = 0
KHA3 200326Z 15014KT 18/06 A298 RMK A01 T01790057  RH  045%=      5-min Rain = 0
KHA3 200327Z 15011KT 18/06 A298 RMK A01 T01790057  RH  045%=      5-min Rain = 0
KHA3 200328Z 16012KT 18/06 A298 RMK A01 T01780057  RH  045%=      5-min Rain = 0
KHA3 200329Z 15013G18KT 18/06 A298 RMK A01 T01780057  RH  045%=      5-min Rain = 0
KHA3 200330Z 15012KT 18/06 A298 RMK A01 T01780057  RH  045%=      5-min Rain = 0
KHA3 200331Z 16013KT 18/06 A2981 RMK A01 T01780057  RH  045%=      5-min Rain = 0
KHA3 200332Z 16013KT 18/06 A2981 RMK A01 T01780057  RH  045%=      5-min Rain = 0
KHA3 200333Z 16013KT 18/06 A2981 RMK A01 T01770057  RH  045%=      5-min Rain = 0
KHA3 200334Z 16013KT 18/06 A2981 RMK A01 T01770057  RH  045%=      5-min Rain = 0
KHA3 200335Z 16013KT 18/06 A2981 RMK A01 T01770057  RH  046%=      5-min Rain = 0
KHA3 200336Z 15012KT 18/06 A2981 RMK A01 T01760057  RH  046%=      5-min Rain = 0
KHA3 200337Z 15012KT 18/06 A2981 RMK A01 T01760058  RH  046%=      5-min Rain = 0
KHA3 200338Z 16012KT 18/06 A2981 RMK A01 T01750058  RH  046%=      5-min Rain = 0
KHA3 200339Z 15012KT 18/06 A2981 RMK A01 T01750058  RH  046%=      5-min Rain = 0
KHA3 200340Z 15014KT 17/06 A298 RMK A01 T01740057  RH  046%=      5-min Rain = 0
KHA3 200341Z 15014KT 17/06 A298 RMK A01 T01740057  RH  046%=      5-min Rain = 0
KHA3 200342Z 16012KT 17/06 A2981 RMK A01 T01740057  RH  046%=      5-min Rain = 0
KHA3 200343Z 16013KT 17/06 A2981 RMK A01 T01740057  RH  046%=      5-min Rain = 0
KHA3 200344Z 16013KT 17/06 A2981 RMK A01 T01740058  RH  046%=      5-min Rain = 0
KHA3 200345Z 16014KT 17/06 A2981 RMK A01 T01740058  RH  046%=      5-min Rain = 0
KHA3 200346Z 15012KT 17/06 A2981 RMK A01 T01740058  RH  047%=      5-min Rain = 0
KHA3 200347Z 16014KT 17/06 A2981 RMK A01 T01730058  RH  047%=      5-min Rain = 0
KHA3 200348Z 16013KT 17/06 A2981 RMK A01 T01730058  RH  047%=      5-min Rain = 0
KHA3 200349Z 16015KT 17/06 A298 RMK A01 T01730058  RH  047%=      5-min Rain = 0
KHA3 200350Z 16013KT 17/06 A2981 RMK A01 T01730058  RH  047%=      5-min Rain = 0
KHA3 200351Z 16014KT 17/06 A2981 RMK A01 T01730058  RH  047%=      5-min Rain = 0
KHA3 200352Z 16012KT 17/06 A2981 RMK A01 T01730058  RH  047%=      5-min Rain = 0
KHA3 200353Z 16013KT 17/06 A2981 RMK A01 T01720058  RH  047%=      5-min Rain = 0
KHA3 200354Z 16013KT 17/06 A2981 RMK A01 T01710058  RH  047%=      5-min Rain = 0
KHA3 200355Z 16014KT 17/06 A2981 RMK A01 T01700058  RH  047%=      5-min Rain = 0
KHA3 200356Z 16014KT 17/06 A2981 RMK A01 T01690058  RH  048%=      5-min Rain = 0
KHA3 200357Z 16014KT 17/06 A2981 RMK A01 T01690058  RH  048%=      5-min Rain = 0
KHA3 200358Z 16014KT 17/06 A2981 RMK A01 T01690058  RH  048%=      5-min Rain = 0
KHA3 200359Z 16012KT 17/06 A2981 RMK A01 T01680058  RH  048%=      5-min Rain = 0
KHA3 200400Z 16012KT 17/06 A2981 RMK A01 T01670058  RH  048%=      5-min Rain = 0
KHA3 200401Z 16011KT 17/06 A2981 RMK A01 T01660058  RH  049%=      5-min Rain = 0
KHA3 200402Z 16013KT 17/06 A2981 RMK A01 T01660058  RH  049%=      5-min Rain = 0
KHA3 200403Z 16013KT 17/06 A2981 RMK A01 T01660058  RH  049%=      5-min Rain = 0
KHA3 200404Z 16014KT 17/06 A2981 RMK A01 T01650058  RH  049%=      5-min Rain = 0
KHA3 200405Z 16013KT 17/06 A2981 RMK A01 T01650058  RH  049%=      5-min Rain = 0
KHA3 200406Z 16013KT 17/06 A2981 RMK A01 T01650058  RH  049%=      5-min Rain = 0
KHA3 200407Z 16014KT 17/06 A2981 RMK A01 T01650058  RH  049%=      5-min Rain = 0
KHA3 200408Z 16012KT 17/06 A2981 RMK A01 T01650058  RH  049%=      5-min Rain = 0
KHA3 200409Z 16014KT 17/06 A2981 RMK A01 T01650058  RH  049%=      5-min Rain = 0
KHA3 200410Z 16013KT 16/06 A2981 RMK A01 T01640058  RH  049%=      5-min Rain = 0
KHA3 200411Z 16013KT 17/06 A2981 RMK A01 T01650058  RH  049%=      5-min Rain = 0
KHA3 200412Z 16014KT 16/06 A2981 RMK A01 T01640058  RH  049%=      5-min Rain = 0
KHA3 200413Z 16013KT 17/06 A2981 RMK A01 T01650059  RH  049%=      5-min Rain = 0
KHA3 200414Z 16013KT 17/06 A2981 RMK A01 T01650059  RH  050%=      5-min Rain = 0
KHA3 200415Z 17013KT 16/06 A2981 RMK A01 T01640059  RH  050%=      5-min Rain = 0
KHA3 200416Z 16012KT 16/06 A2981 RMK A01 T01630059  RH  050%=      5-min Rain = 0
KHA3 200417Z 17012KT 16/06 A2981 RMK A01 T01630059  RH  050%=      5-min Rain = 0
KHA3 200418Z 16013KT 16/06 A2981 RMK A01 T01630059  RH  050%=      5-min Rain = 0
KHA3 200419Z 17013KT 16/06 A2981 RMK A01 T01630059  RH  050%=      5-min Rain = 0
KHA3 200420Z 16012KT 16/06 A2981 RMK A01 T01620059  RH  050%=      5-min Rain = 0
KHA3 200421Z 17013KT 16/06 A2981 RMK A01 T01620059  RH  050%=      5-min Rain = 0
KHA3 200422Z 16013KT 16/06 A2981 RMK A01 T01620059  RH  051%=      5-min Rain = 0
KHA3 200423Z 17013KT 16/06 A2981 RMK A01 T01620059  RH  051%=      5-min Rain = 0
KHA3 200424Z 17012KT 16/06 A2981 RMK A01 T01610059  RH  051%=      5-min Rain = 0
KHA3 200425Z 17013KT 16/06 A2981 RMK A01 T01610060  RH  051%=      5-min Rain = 0
KHA3 200426Z 17012KT 16/06 A2981 RMK A01 T01600059  RH  051%=      5-min Rain = 0
KHA3 200427Z 17013KT 16/06 A2981 RMK A01 T01600060  RH  051%=      5-min Rain = 0
KHA3 200428Z 17012KT 16/06 A2981 RMK A01 T01600060  RH  051%=      5-min Rain = 0
KHA3 200429Z 17013KT 16/06 A2981 RMK A01 T01600060  RH  051%=      5-min Rain = 0
KHA3 200430Z 17013KT 16/06 A2981 RMK A01 T01600060  RH  051%=      5-min Rain = 0
KHA3 200431Z 17013KT 16/06 A2981 RMK A01 T01600060  RH  051%=      5-min Rain = 0
KHA3 200432Z 17012KT 16/06 A2981 RMK A01 T01600060  RH  052%=      5-min Rain = 0
KHA3 200433Z 17012KT 16/06 A2981 RMK A01 T01600060  RH  052%=      5-min Rain = 0
KHA3 200434Z 16012KT 16/06 A2981 RMK A01 T01600061  RH  052%=      5-min Rain = 0
KHA3 200435Z 16013KT 16/06 A2981 RMK A01 T01590061  RH  052%=      5-min Rain = 0
KHA3 200436Z 17012KT 16/06 A2981 RMK A01 T01590061  RH  052%=      5-min Rain = 0
KHA3 200437Z 17013KT 16/06 A2981 RMK A01 T01590061  RH  052%=      5-min Rain = 0
KHA3 200438Z 16012KT 16/06 A2981 RMK A01 T01590061  RH  052%=      5-min Rain = 0
KHA3 200439Z 16011KT 16/06 A2981 RMK A01 T01600061  RH  052%=      5-min Rain = 0
KHA3 200440Z 17012KT 16/06 A2981 RMK A01 T01600061  RH  052%=      5-min Rain = 0
KHA3 200441Z 16013KT 16/06 A2981 RMK A01 T01590061  RH  052%=      5-min Rain = 0
KHA3 200442Z 16013KT 16/06 A2981 RMK A01 T01590062  RH  052%=      5-min Rain = 0
KHA3 200443Z 17012KT 16/06 A2981 RMK A01 T01590061  RH  052%=      5-min Rain = 0
KHA3 200444Z 17013KT 16/06 A2981 RMK A01 T01590062  RH  052%=      5-min Rain = 0
KHA3 200445Z 17012KT 16/06 A2981 RMK A01 T01590062  RH  052%=      5-min Rain = 0
KHA3 200446Z 17013KT 16/06 A298 RMK A01 T01590062  RH  052%=      5-min Rain = 0
KHA3 200447Z 16013KT 16/06 A298 RMK A01 T01590062  RH  053%=      5-min Rain = 0
KHA3 200448Z 17012KT 16/06 A298 RMK A01 T01590062  RH  053%=      5-min Rain = 0
KHA3 200449Z 17013KT 16/06 A298 RMK A01 T01590062  RH  053%=      5-min Rain = 0
KHA3 200450Z 16013KT 16/06 A298 RMK A01 T01590062  RH  053%=      5-min Rain = 0
KHA3 200451Z 16013KT 16/06 A298 RMK A01 T01600063  RH  053%=      5-min Rain = 0
KHA3 200452Z 16013KT 16/06 A298 RMK A01 T01600063  RH  053%=      5-min Rain = 0
KHA3 200453Z 16013KT 16/06 A298 RMK A01 T01600063  RH  053%=      5-min Rain = 0
KHA3 200454Z 17013KT 16/06 A298 RMK A01 T01600063  RH  053%=      5-min Rain = 0
KHA3 200455Z 17013KT 16/06 A298 RMK A01 T01610064  RH  052%=      5-min Rain = 0
KHA3 200456Z 16013KT 16/06 A298 RMK A01 T01610064  RH  053%=      5-min Rain = 0
KHA3 200457Z 16013KT 16/06 A298 RMK A01 T01610064  RH  053%=      5-min Rain = 0
KHA3 200458Z 16013KT 16/06 A298 RMK A01 T01610064  RH  053%=      5-min Rain = 0
KHA3 200459Z 16014KT 16/06 A298 RMK A01 T01600064  RH  053%=      5-min Rain = 0
KHA3 200500Z 16013KT 16/06 A298 RMK A01 T01610064  RH  053%=      5-min Rain = 0
KHA3 200501Z 17012KT 16/06 A298 RMK A01 T01610064  RH  053%=      5-min Rain = 0
KHA3 200502Z 16012KT 16/07 A298 RMK A01 T01610065  RH  053%=      5-min Rain = 0
KHA3 200503Z 16013KT 16/06 A298 RMK A01 T01600064  RH  053%=      5-min Rain = 0
KHA3 200504Z 16013KT 16/07 A298 RMK A01 T01600065  RH  053%=      5-min Rain = 0
KHA3 200505Z 16013KT 16/07 A298 RMK A01 T01600065  RH  053%=      5-min Rain = 0
KHA3 200506Z 16013KT 16/07 A298 RMK A01 T01590065  RH  053%=      5-min Rain = 0
KHA3 200507Z 16013KT 16/07 A298 RMK A01 T01600065  RH  053%=      5-min Rain = 0
KHA3 200508Z 16012KT 16/07 A298 RMK A01 T01590065  RH  053%=      5-min Rain = 0
KHA3 200509Z 16014KT 16/07 A298 RMK A01 T01590065  RH  054%=      5-min Rain = 0
KHA3 200510Z 16013KT 16/07 A298 RMK A01 T01590065  RH  054%=      5-min Rain = 0
KHA3 200511Z 16013KT 16/07 A298 RMK A01 T01580065  RH  054%=      5-min Rain = 0
KHA3 200512Z 16014KT 16/07 A298 RMK A01 T01580065  RH  054%=      5-min Rain = 0
KHA3 200513Z 16013KT 16/07 A298 RMK A01 T01580066  RH  054%=      5-min Rain = 0
KHA3 200514Z 16013KT 16/07 A298 RMK A01 T01570065  RH  054%=      5-min Rain = 0
KHA3 200515Z 16013KT 16/07 A298 RMK A01 T01570066  RH  055%=      5-min Rain = 0
KHA3 200516Z 16013KT 16/07 A298 RMK A01 T01560066  RH  055%=      5-min Rain = 0
KHA3 200517Z 16014KT 16/07 A298 RMK A01 T01560066  RH  055%=      5-min Rain = 0
KHA3 200518Z 16013KT 16/07 A298 RMK A01 T01560066  RH  055%=      5-min Rain = 0
KHA3 200519Z 16013KT 16/07 A298 RMK A01 T01560066  RH  055%=      5-min Rain = 0
KHA3 200520Z 16014KT 16/07 A298 RMK A01 T01560066  RH  055%=      5-min Rain = 0
KHA3 200521Z 16014KT 16/07 A298 RMK A01 T01560066  RH  055%=      5-min Rain = 0
KHA3 200522Z 17013KT 16/07 A298 RMK A01 T01560067  RH  055%=      5-min Rain = 0
KHA3 200523Z 17014KT 16/07 A298 RMK A01 T01550066  RH  055%=      5-min Rain = 0
KHA3 200524Z 17014KT 16/07 A298 RMK A01 T01550067  RH  056%=      5-min Rain = 0
KHA3 200525Z 17014KT 16/07 A298 RMK A01 T01550067  RH  056%=      5-min Rain = 0
KHA3 200526Z 17013KT 16/07 A298 RMK A01 T01550067  RH  056%=      5-min Rain = 0
KHA3 200527Z 17014KT 16/07 A298 RMK A01 T01550067  RH  056%=      5-min Rain = 0
KHA3 200528Z 17015KT 16/07 A298 RMK A01 T01550067  RH  056%=      5-min Rain = 0
KHA3 200529Z 17013KT 16/07 A298 RMK A01 T01560067  RH  056%=      5-min Rain = 0
KHA3 200530Z 17013KT 16/07 A298 RMK A01 T01560067  RH  056%=      5-min Rain = 0
KHA3 200531Z 17012KT 16/07 A298 RMK A01 T01550068  RH  056%=      5-min Rain = 0
KHA3 200532Z 17013KT 15/07 A298 RMK A01 T01540068  RH  056%=      5-min Rain = 0
KHA3 200533Z 17013KT 15/07 A298 RMK A01 T01540068  RH  056%=      5-min Rain = 0
KHA3 200534Z 17013KT 16/07 A298 RMK A01 T01550068  RH  056%=      5-min Rain = 0
KHA3 200535Z 17013KT 16/07 A2981 RMK A01 T01550068  RH  056%=      5-min Rain = 0
KHA3 200536Z 17014KT 16/07 A2981 RMK A01 T01550069  RH  056%=      5-min Rain = 0
KHA3 200537Z 17015KT 16/07 A2981 RMK A01 T01560069  RH  056%=      5-min Rain = 0
KHA3 200538Z 17013KT 16/07 A2981 RMK A01 T01560069  RH  056%=      5-min Rain = 0
KHA3 200539Z 17013G18KT 16/07 A2981 RMK A01 T01560069  RH  056%=      5-min Rain = 0
KHA3 200540Z 17014KT 16/07 A2981 RMK A01 T01550069  RH  057%=      5-min Rain = 0
KHA3 200541Z 17014KT 16/07 A2981 RMK A01 T01560070  RH  057%=      5-min Rain = 0
KHA3 200542Z 17014KT 16/07 A2981 RMK A01 T01560070  RH  056%=      5-min Rain = 0
KHA3 200543Z 17013KT 16/07 A2981 RMK A01 T01560070  RH  057%=      5-min Rain = 0
KHA3 200544Z 17013KT 16/07 A2981 RMK A01 T01550070  RH  057%=      5-min Rain = 0
KHA3 200545Z 17014KT 16/07 A2981 RMK A01 T01550070  RH  057%=      5-min Rain = 0
KHA3 200546Z 17013KT 16/07 A298 RMK A01 T01560071  RH  057%=      5-min Rain = 0
KHA3 200547Z 17013KT 16/07 A2981 RMK A01 T01560070  RH  057%=      5-min Rain = 0
KHA3 200548Z 17014KT 16/07 A2981 RMK A01 T01560071  RH  057%=      5-min Rain = 0
KHA3 200549Z 17012KT 16/07 A2981 RMK A01 T01550071  RH  057%=      5-min Rain = 0
KHA3 200550Z 17013KT 16/07 A2981 RMK A01 T01550071  RH  057%=      5-min Rain = 0
KHA3 200551Z 17012KT 16/07 A2981 RMK A01 T01550071  RH  057%=      5-min Rain = 0
KHA3 200552Z 17012KT 15/07 A2981 RMK A01 T01540071  RH  058%=      5-min Rain = 0
KHA3 200553Z 17012KT 15/07 A2981 RMK A01 T01540071  RH  058%=      5-min Rain = 0
KHA3 200554Z 17013KT 15/07 A2981 RMK A01 T01540071  RH  058%=      5-min Rain = 0
KHA3 200555Z 17012KT 15/07 A2981 RMK A01 T01540071  RH  058%=      5-min Rain = 0
KHA3 200556Z 17012KT 15/07 A2981 RMK A01 T01530071  RH  058%=      5-min Rain = 0
KHA3 200557Z 17011KT 15/07 A2981 RMK A01 T01530071  RH  058%=      5-min Rain = 0
KHA3 200558Z 17012KT 15/07 A2981 RMK A01 T01520071  RH  058%=      5-min Rain = 0
KHA3 200559Z 17012KT 15/07 A2981 RMK A01 T01520071  RH  059%=      5-min Rain = 0

Page generated in 0.272 seconds.